GFSFLT1_700_spd_000.txt.gz
Wind_Speed
17 13 11 11 12 15 17 17 17 20 22 22 20 24 24 24 25 26 28 29 32 32 31 31 31 32 32 34 36 37 41 40
15 13 13 15 15 15 14 19 19 22 23 21 23 26 26 26 26 27 30 32 36 36 34 36 35 39 39 39 41 44 42 43
14 14 13 12 14 15 15 19 22 23 23 26 27 29 31 29 31 32 34 37 40 40 38 39 39 39 40 39 40 44 46 46
10 9 10 11 12 14 17 21 23 24 26 29 31 35 35 36 36 37 36 40 39 40 39 38 38 40 43 45 47 48 51 51
7 7 10 14 14 16 18 23 26 28 30 32 35 39 41 42 43 42 44 44 40 34 37 40 43 45 47 49 49 50 52 55
7 11 14 17 17 19 23 27 30 32 34 36 40 41 41 46 50 52 48 43 36 38 40 42 46 48 49 51 51 52 54 56
13 16 18 20 22 25 28 29 31 36 37 41 42 44 41 47 46 45 42 38 42 45 48 53 52 53 54 53 54 54 54 54
19 19 21 21 24 26 28 33 36 38 41 43 48 50 43 42 43 44 44 45 47 51 55 54 53 53 53 53 50 45 44 43
16 16 19 22 23 28 30 35 44 48 47 45 42 43 42 43 45 46 45 47 52 56 56 55 52 50 46 38 38 39 40 40
16 20 24 28 34 38 38 40 44 43 43 44 42 44 44 44 46 47 48 55 57 56 55 49 46 41 38 33 32 30 37 42
21 25 31 33 33 35 37 38 41 45 44 44 45 45 47 49 49 51 54 56 56 50 44 38 36 33 33 31 32 36 31 33
24 26 26 30 32 33 38 42 42 43 44 42 45 45 45 47 50 54 55 50 44 38 35 32 33 33 36 37 36 36 36 34
23 30 32 36 41 45 43 39 41 44 39 38 36 41 47 51 54 54 47 41 37 34 34 33 33 37 40 39 38 35 36 34
33 33 38 43 46 40 38 44 42 35 33 37 42 47 51 52 51 45 40 36 34 33 32 34 35 35 36 36 36 36 37 37
36 41 44 43 38 41 39 38 35 36 40 42 44 49 50 49 44 40 37 35 31 31 33 36 39 39 39 39 37 38 38 38
43 43 44 40 42 39 37 35 34 36 41 45 48 49 47 45 40 38 38 37 35 35 35 35 34 33 35 34 34 37 37 36
47 45 35 37 36 33 32 35 37 40 44 46 47 46 43 40 38 37 36 33 32 32 31 32 34 35 39 38 37 36 36 36
42 38 34 35 33 33 33 36 40 42 45 46 46 44 41 37 35 32 30 30 30 32 35 37 37 36 38 36 36 36 35 34
41 36 31 31 29 32 34 37 41 43 44 44 43 41 38 34 32 31 30 33 36 36 36 35 34 34 36 35 35 35 35 34

GFSFLT1_700_spd_003.txt.gz
Wind_Speed
16 16 13 12 13 13 12 22 20 24 24 24 25 27 26 26 29 30 30 30 32 33 33 35 36 36 38 36 35 35 35 38
23 18 19 18 18 14 11 21 27 23 24 25 27 27 27 31 31 36 36 37 37 38 37 40 41 42 38 37 36 37 39 39
18 20 19 17 20 14 21 25 24 23 27 31 29 30 31 34 34 39 37 40 39 40 45 46 44 40 38 38 39 41 42 40
15 18 17 14 13 14 19 22 24 26 30 33 34 32 33 36 41 40 42 44 43 45 45 44 40 41 41 41 44 46 48 48
6 10 10 11 15 18 22 26 29 32 33 36 33 37 43 45 46 48 50 47 46 44 42 41 42 44 45 47 49 51 51 55
10 10 13 16 19 21 25 30 34 36 39 37 38 44 43 43 48 49 45 39 42 42 42 43 43 45 50 55 54 54 55 56
12 14 18 21 23 25 30 33 38 37 38 45 50 50 44 41 43 46 45 45 45 47 49 51 52 54 59 57 55 57 57 56
15 17 17 24 23 25 28 29 31 35 41 46 47 46 49 48 47 46 46 47 50 53 55 56 58 59 56 52 45 42 40 41
18 14 15 16 24 26 28 30 36 41 40 41 45 45 43 45 46 46 48 51 54 55 57 59 59 55 46 41 39 40 39 36
8 10 18 29 31 36 37 34 33 37 42 44 45 45 49 49 50 52 52 52 54 57 58 54 47 38 37 37 36 36 34 35
12 17 21 26 28 34 36 38 44 48 45 43 47 50 47 48 48 48 52 56 58 54 50 35 29 35 37 36 36 38 42 40
19 21 28 29 29 29 38 44 47 43 46 49 53 48 44 44 50 53 56 55 53 49 42 38 34 35 36 40 42 42 42 38
19 20 25 29 35 35 45 51 43 43 45 47 41 44 44 48 52 54 54 51 47 42 39 36 33 33 29 33 34 36 37 35
23 27 28 33 37 47 47 43 42 38 38 38 40 43 46 49 52 53 51 48 43 40 36 30 34 36 39 40 37 36 36 34
27 36 44 46 42 37 42 41 36 35 36 40 43 45 48 50 51 46 41 41 40 38 34 33 32 32 32 29 29 33 35 31
39 42 43 44 43 40 37 35 35 35 37 42 45 47 49 46 43 43 41 40 36 32 30 27 27 28 30 36 36 37 36 36
38 41 45 41 34 33 28 33 29 37 41 40 43 43 42 41 41 37 34 31 28 29 28 27 27 25 32 37 35 37 37 36
42 45 37 31 30 31 28 32 34 39 34 33 32 37 39 38 37 29 27 27 28 27 26 26 29 30 35 40 39 39 40 39
41 35 34 33 32 33 33 37 33 34 34 37 34 36 39 32 28 25 29 27 29 28 29 31 36 36 41 44 42 41 41 38

GFSFLT1_700_spd_006.txt.gz
Wind_Speed
15 14 9 14 16 20 18 22 29 20 20 21 19 22 25 30 32 27 39 32 36 37 38 40 40 41 43 40 39 39 36 36
22 21 22 23 21 22 22 22 25 24 27 26 26 29 33 32 31 33 35 38 42 37 39 43 39 45 45 44 43 40 40 38
19 26 26 21 19 20 19 22 24 22 29 31 28 38 36 34 33 36 41 45 45 49 48 46 46 40 43 42 41 42 43 42
20 23 20 17 19 19 21 23 24 24 30 35 39 37 37 37 40 48 53 55 53 38 41 42 43 41 39 42 43 44 48 47
1 12 12 12 12 15 18 23 25 28 32 34 36 37 39 49 49 39 37 38 40 40 39 40 41 44 44 45 47 50 51 53
11 11 12 15 16 19 24 28 32 32 35 35 40 45 46 47 44 44 43 45 44 42 44 45 48 50 51 50 52 54 56 57
10 15 19 19 21 25 25 26 30 34 36 40 42 41 40 43 50 53 52 49 48 48 50 52 53 53 54 56 57 58 56 53
1 2 8 20 23 22 22 24 26 30 38 42 39 45 51 54 50 50 49 51 51 50 52 51 54 57 57 57 53 47 46 39
7 13 16 21 26 27 29 31 31 34 37 42 47 53 53 49 50 50 53 50 50 50 53 54 56 56 53 52 45 38 36 36
14 9 16 18 24 30 37 38 35 32 39 45 53 54 51 49 54 54 48 48 48 52 54 53 53 52 48 44 40 38 40 36
8 12 19 24 30 34 34 39 42 39 45 52 46 48 49 49 45 45 48 48 50 52 53 53 48 46 42 39 37 36 37 34
14 15 19 25 34 40 35 44 45 45 49 49 48 43 43 43 44 48 49 51 52 50 47 43 39 37 33 32 32 30 31 31
25 27 30 37 41 42 46 46 46 49 47 47 39 39 40 41 44 47 49 51 49 47 46 44 39 36 33 31 33 35 38 39
28 33 34 39 42 43 45 47 45 44 43 42 39 39 42 42 43 49 49 46 46 43 41 37 34 33 33 32 32 32 34 36
33 33 41 44 46 47 44 38 39 40 39 35 42 46 50 47 47 42 44 45 44 41 35 32 33 32 33 34 34 35 36 36
34 42 45 47 45 37 36 36 33 34 33 34 49 51 48 52 45 44 47 44 41 38 35 33 32 32 32 35 37 37 37 39
39 45 45 38 35 31 35 34 31 40 40 51 50 43 34 40 37 41 42 38 38 37 36 36 34 35 37 42 42 41 42 42
43 42 28 27 31 35 30 32 37 37 43 46 47 41 42 36 46 47 39 32 37 39 36 36 39 40 41 45 45 44 45 43
37 25 27 27 39 31 37 44 44 35 35 40 48 50 45 38 45 37 32 32 38 36 37 39 43 40 42 44 46 42 39 38

GFSFLT1_700_spd_009.txt.gz
Wind_Speed
16 15 15 16 19 23 18 23 20 22 14 21 24 23 26 27 36 41 40 39 40 39 45 48 48 49 44 38 38 37 37 39
26 22 18 19 21 24 25 22 21 20 25 23 25 27 28 39 38 35 34 37 34 48 41 44 47 40 36 37 39 40 40 40
27 26 21 23 25 25 27 23 23 25 27 28 29 29 32 31 29 34 40 44 50 50 43 43 42 43 39 37 39 42 42 42
23 27 25 25 23 22 19 17 17 21 26 27 32 34 33 34 31 35 42 48 44 46 43 42 45 45 44 42 43 44 47 46
26 23 15 11 10 12 15 15 17 22 25 31 32 32 34 37 43 47 45 45 51 49 48 49 49 47 47 47 48 47 47 49
19 16 13 12 14 17 21 25 26 28 28 32 34 37 41 43 44 46 51 52 49 48 47 47 47 47 47 47 48 51 51 51
14 17 17 16 17 20 20 20 24 28 33 38 41 41 42 45 48 53 52 49 48 49 51 45 47 46 48 50 49 50 49 47
17 18 19 21 20 21 23 25 31 33 35 37 41 44 47 49 53 47 49 50 51 47 43 44 45 46 47 49 49 47 48 47
6 8 12 11 11 24 36 37 38 41 41 45 46 45 50 50 56 46 52 51 47 46 46 47 48 49 51 49 45 43 44 40
13 12 11 11 17 26 34 39 42 46 45 49 47 46 51 51 59 55 54 49 47 46 47 48 49 48 46 43 41 39 39 41
11 19 22 26 28 33 36 43 45 45 47 46 45 47 51 57 57 50 49 47 48 46 45 44 43 42 40 36 34 34 35 33
17 19 25 30 30 33 40 40 43 47 47 44 43 43 47 45 37 46 53 47 46 45 46 48 46 43 39 35 34 33 32 33
24 27 26 30 40 41 44 48 47 45 43 42 42 45 44 31 47 56 57 45 41 42 49 48 43 39 37 36 34 33 33 32
26 27 36 43 40 44 48 47 43 41 42 43 41 44 39 50 54 57 47 40 39 49 50 43 46 42 36 34 34 34 34 35
29 36 40 41 45 48 45 39 39 39 39 43 43 44 46 47 52 52 43 34 44 45 43 43 46 41 35 33 35 36 37 40
39 41 40 45 46 43 38 41 39 40 40 42 44 44 43 45 52 56 38 38 40 40 38 41 48 41 35 37 40 42 44 45
39 36 44 45 40 38 37 45 45 45 45 47 40 42 42 49 53 42 27 30 36 38 37 46 45 40 40 42 46 46 47 47
39 42 43 36 35 37 44 44 46 49 51 42 37 38 44 48 57 27 34 34 35 33 43 42 40 41 45 46 47 48 44 43
39 34 28 30 35 43 46 47 50 50 43 42 41 42 43 44 33 31 31 32 32 38 39 38 40 40 40 43 44 43 42 38

GFSFLT1_700_spd_012.txt.gz
Wind_Speed
19 17 15 16 14 16 16 16 16 13 17 19 17 17 23 26 27 29 33 31 31 30 39 43 47 41 41 40 40 39 42 44
21 21 18 20 18 16 18 20 21 17 17 13 16 22 25 27 30 31 31 29 36 39 41 42 42 47 48 46 45 45 45 44
21 20 21 19 20 23 25 18 15 14 11 14 19 21 25 27 34 34 40 40 42 42 40 46 49 47 45 45 46 47 47 47
21 17 20 22 22 19 12 11 11 12 14 17 20 23 28 29 32 36 37 39 42 46 49 52 49 48 48 47 47 46 48 47
14 15 16 12 8 7 9 12 16 18 19 21 23 27 31 34 36 36 38 43 48 50 50 47 46 47 49 49 47 47 46 47
18 18 17 17 17 17 15 19 22 21 24 25 28 33 36 39 39 41 45 47 50 53 46 45 48 50 45 46 47 47 47 47
9 12 15 17 18 21 19 16 20 26 31 37 41 43 46 49 48 46 50 53 47 55 47 46 43 46 46 45 47 49 50 50
11 9 12 18 21 23 16 24 30 33 38 44 46 47 49 50 48 47 44 48 49 57 44 47 49 50 49 49 50 49 47 46
11 13 17 17 20 21 26 27 29 35 42 45 47 48 43 45 46 47 52 57 55 45 47 53 52 48 46 47 50 52 46 41
14 14 15 19 21 25 25 27 32 36 42 47 48 49 48 44 48 46 48 47 39 47 48 46 41 37 42 44 44 42 41 38
16 17 22 26 25 26 28 35 44 47 50 51 45 42 42 43 43 44 40 41 50 50 50 46 40 43 45 45 48 45 36 31
18 18 26 24 26 31 37 45 46 47 51 45 42 42 43 43 44 43 41 52 48 51 49 48 38 40 40 40 40 36 30 27
23 26 28 33 37 41 45 43 47 49 44 42 42 42 44 46 47 44 44 45 48 45 39 31 33 36 37 41 34 29 31 32
24 28 31 36 42 43 44 48 49 42 41 40 41 42 45 48 49 47 44 44 45 45 31 32 35 37 37 34 30 33 35 35
27 29 39 45 46 46 47 47 43 42 41 41 45 48 50 46 40 40 42 44 46 37 27 34 36 35 38 35 35 38 38 39
29 37 42 44 44 48 44 42 42 43 44 45 49 50 40 35 39 43 48 46 40 26 30 35 35 37 36 39 40 39 40 44
36 39 41 43 46 43 41 41 42 44 46 48 44 40 38 38 41 42 41 29 42 24 30 33 34 36 38 40 39 40 44 44
38 41 42 42 40 40 40 42 42 45 48 44 38 37 39 40 39 36 32 33 23 26 29 30 36 38 40 40 40 43 43 43
39 39 40 38 38 38 41 43 45 47 44 41 37 37 39 40 38 34 31 23 31 27 28 34 38 38 37 37 39 42 41 43

GFSFLT1_700_spd_018.txt.gz
Wind_Speed
15 16 13 12 15 19 25 28 25 23 17 16 17 10 8 15 19 22 28 30 27 38 37 37 42 45 48 51 52 53 55 58
20 20 21 16 17 17 27 22 21 14 6 11 11 12 14 18 23 27 27 37 35 37 39 42 46 49 50 51 54 58 58 56
22 23 23 16 11 15 15 14 13 6 8 9 11 13 18 20 25 28 30 32 35 39 42 43 45 49 53 54 55 55 53 57
4 6 8 12 10 12 13 12 13 14 12 10 13 15 18 24 30 33 38 41 45 48 51 53 53 55 55 55 55 55 57 54
3 7 8 8 11 14 14 14 13 10 9 14 20 24 30 35 40 44 47 49 51 52 54 54 54 54 56 59 58 53 50 50
5 12 3 13 18 15 12 12 12 12 21 26 33 36 38 41 46 48 49 51 52 52 51 52 52 51 51 50 51 52 51 47
8 7 6 20 26 13 10 13 15 19 26 32 36 39 41 44 49 49 49 47 46 48 49 49 48 47 47 49 51 48 45 42
9 14 24 19 13 18 18 20 21 24 30 36 37 42 45 44 46 46 45 45 46 47 48 48 48 46 45 47 49 44 45 43
18 21 18 17 21 19 20 23 24 26 32 38 45 44 45 48 47 47 48 49 50 52 52 50 46 45 41 44 39 40 37 35
23 19 22 25 25 23 23 23 22 29 36 45 46 47 47 47 47 48 49 50 51 50 50 43 44 41 40 44 38 33 32 35
22 20 24 27 27 27 31 30 25 33 39 43 44 44 44 46 47 49 49 48 47 46 42 44 44 42 42 34 29 26 32 35
20 23 29 31 35 35 43 29 30 38 40 42 42 43 45 47 48 49 47 46 46 45 42 40 39 35 29 27 26 30 33 38
24 28 32 32 36 35 38 38 39 38 39 41 42 45 46 48 49 49 49 47 44 40 38 36 34 27 28 29 29 31 36 37
25 28 30 32 35 35 40 40 35 37 40 41 44 46 48 49 49 48 47 45 41 38 35 32 22 27 25 26 32 37 37 36
26 26 27 29 36 40 39 36 38 39 40 43 45 48 49 48 47 47 45 43 39 35 32 27 28 25 27 31 34 34 36 36
26 26 28 36 38 35 34 37 40 41 42 45 47 48 49 48 48 47 44 40 36 33 29 27 21 27 28 31 32 35 36 35
27 28 35 34 33 33 35 38 40 42 44 46 47 49 49 48 47 45 44 39 35 32 27 24 27 27 29 30 33 34 34 36
30 33 34 34 33 35 36 38 39 41 44 45 47 47 47 46 45 43 41 37 34 32 29 26 25 27 30 32 31 32 33 35
31 34 34 33 35 35 36 38 40 42 44 46 46 46 45 45 42 40 37 35 33 30 28 26 26 28 30 30 30 30 32 35

GFSFLT1_700_spd_021.txt.gz
Wind_Speed
10 12 12 10 11 15 20 22 22 24 19 6 7 7 6 7 12 15 21 25 27 30 32 35 37 41 43 46 49 50 53 56
15 15 16 17 18 17 17 16 19 8 6 9 7 9 8 10 15 20 22 25 28 32 35 37 40 42 44 46 45 48 52 55
17 15 12 8 14 14 17 14 13 12 9 9 9 10 13 15 18 22 26 31 35 37 41 44 46 48 49 52 54 56 56 56
7 3 1 1 2 5 6 7 8 9 8 6 10 15 19 22 25 29 33 38 41 42 45 46 48 50 51 53 54 53 53 53
6 1 3 9 7 14 14 12 8 8 6 12 16 21 26 30 34 37 39 40 43 45 46 47 48 49 50 50 51 50 49 49
6 5 8 6 13 19 18 8 8 10 10 16 21 26 31 36 39 39 41 43 43 45 45 45 46 47 48 47 46 45 45 45
6 6 3 15 20 13 9 14 14 13 16 20 24 28 34 38 40 42 42 43 43 45 46 47 46 45 45 45 44 44 43 42
6 5 10 13 9 13 16 18 19 20 22 25 28 32 37 39 41 42 43 44 44 44 45 45 44 44 41 43 46 45 46 42
8 11 13 9 14 16 18 21 24 28 28 28 33 34 39 42 43 44 44 45 45 45 44 44 43 42 43 43 45 39 37 37
13 13 14 14 20 21 23 28 30 33 33 34 34 40 39 41 43 43 44 44 44 44 44 44 42 39 37 36 32 28 30 28
13 15 17 19 22 24 28 28 33 39 41 34 40 37 39 42 44 45 45 44 44 44 44 42 39 36 33 30 26 28 28 30
17 19 22 24 25 26 30 36 39 36 39 38 34 39 42 44 45 45 46 45 45 44 43 40 36 34 31 26 26 28 29 33
22 23 26 28 30 32 33 36 37 39 36 32 38 41 43 44 44 45 46 45 45 44 41 37 34 31 26 26 27 28 31 35
26 25 28 30 33 33 33 37 40 34 32 35 39 41 43 44 45 45 45 46 45 43 39 35 31 28 27 29 26 30 32 36
27 26 28 31 34 35 35 39 33 31 34 36 39 42 44 45 46 46 46 46 45 42 37 33 30 26 26 28 29 31 34 34
28 27 28 32 31 37 37 32 30 32 34 36 40 42 44 46 46 46 46 45 42 40 36 32 28 25 26 27 29 30 31 33
29 29 31 30 35 36 32 29 32 33 35 38 41 43 44 45 45 44 44 42 40 38 35 31 28 26 24 26 28 29 30 30
28 29 31 31 34 30 30 31 31 33 36 39 41 43 44 44 43 42 41 40 38 36 33 30 27 25 24 25 26 28 28 29
24 28 29 32 31 28 30 30 32 34 37 39 41 44 44 43 41 41 40 39 36 33 30 27 25 24 24 24 25 26 26 30

GFSFLT1_700_spd_024.txt.gz
Wind_Speed
11 12 11 13 12 14 15 17 21 19 18 5 9 7 6 5 7 12 17 21 23 27 31 35 37 38 40 41 43 44 45 50
14 13 13 16 17 18 16 16 14 12 11 7 5 4 5 6 9 13 16 21 25 29 33 35 36 40 41 44 45 47 48 50
16 16 17 18 19 20 17 13 8 7 7 8 5 3 5 9 12 16 21 25 29 32 35 38 39 40 44 45 46 48 48 52
13 11 10 9 7 7 7 4 9 8 10 7 4 4 8 13 17 23 27 31 33 36 37 38 41 43 43 46 47 48 47 46
12 12 9 5 5 6 9 11 8 7 6 5 7 11 16 20 24 29 33 33 36 38 39 40 41 42 44 45 46 46 47 44
15 13 8 5 5 10 10 8 7 10 9 10 14 18 22 26 28 31 34 35 36 38 39 41 43 43 44 44 44 45 42 43
16 10 6 5 7 2 6 11 13 13 13 16 19 24 28 32 33 35 35 37 39 40 42 41 41 41 43 42 41 37 41 41
13 9 7 7 4 7 10 12 15 17 20 23 27 31 27 32 36 34 36 38 39 39 40 40 40 41 40 41 39 38 37 36
13 10 9 8 8 9 12 15 19 22 26 28 32 28 33 36 34 34 37 40 41 40 39 39 39 40 39 38 36 35 31 31
16 12 10 10 12 15 17 19 22 26 29 29 36 35 38 35 36 37 40 41 42 42 42 41 41 41 38 35 32 29 27 29
19 14 13 14 17 20 23 24 28 30 30 35 35 38 34 34 36 39 41 41 42 41 41 42 41 39 36 34 31 26 25 29
21 20 18 19 22 26 28 30 33 37 36 31 41 36 33 35 37 39 41 42 42 42 42 41 40 38 35 31 27 26 29 29
24 23 23 25 27 29 31 35 38 39 34 37 35 32 33 36 38 40 42 43 43 43 43 42 40 37 31 25 29 32 31 28
27 27 28 30 31 32 34 39 41 38 36 34 32 31 34 36 39 42 43 44 43 43 42 41 40 35 29 25 30 32 31 32
30 32 32 34 32 34 37 40 34 37 34 30 30 32 35 38 40 42 44 44 43 42 41 41 38 32 28 26 26 29 30 31
30 33 35 34 33 35 39 36 36 34 29 29 31 34 37 39 41 43 43 42 41 41 41 39 35 31 28 27 26 27 28 29
27 31 34 33 34 36 37 32 36 32 30 31 32 35 37 39 41 42 41 41 41 40 38 36 31 30 27 24 23 24 26 28
25 27 31 33 35 35 36 36 35 31 30 30 33 36 37 40 41 41 40 40 39 37 35 32 30 29 26 24 23 23 25 26
24 27 31 33 34 36 38 36 35 28 29 30 33 36 38 40 42 41 39 38 37 35 33 29 28 26 25 23 22 23 24 25

GFSFLT1_700_spd_027.txt.gz
Wind_Speed
18 18 17 17 18 14 17 17 16 19 20 8 6 5 11 11 8 7 10 14 17 22 24 27 30 35 38 40 41 42 44 47
18 18 18 19 18 16 18 18 18 17 14 10 7 6 9 7 7 9 13 16 19 22 27 30 33 35 39 41 43 43 45 46
21 21 21 21 20 18 19 20 17 13 12 11 9 9 10 9 12 14 15 19 22 26 28 33 37 38 39 42 44 44 43 44
21 21 20 20 19 14 13 13 12 12 12 9 11 13 13 13 15 18 20 25 28 31 34 35 37 39 40 42 43 44 42 44
19 19 17 16 14 12 11 10 11 10 9 12 13 11 10 16 19 23 29 29 32 34 36 38 38 38 39 40 39 43 43 43
18 17 17 15 11 9 9 9 9 9 12 13 14 18 19 22 24 24 30 34 36 36 37 39 39 39 39 41 42 41 40 41
19 19 17 14 12 9 10 10 11 13 15 17 19 21 25 30 35 25 28 33 35 37 37 37 38 39 41 40 41 40 40 39
20 19 17 15 13 12 12 12 13 15 16 19 22 27 30 34 31 36 37 34 36 37 36 36 37 37 37 39 39 31 35 30
20 20 18 16 14 16 15 15 16 17 21 24 26 27 33 31 31 35 34 36 37 37 37 39 40 40 40 38 37 34 26 29
22 22 21 18 16 16 19 21 21 22 25 28 29 33 31 32 33 31 35 37 37 38 39 40 40 39 37 39 28 28 31 28
24 24 24 21 20 20 21 23 27 27 31 34 35 37 33 33 30 33 35 36 37 38 39 39 40 39 38 35 33 30 28 27
24 26 27 25 25 25 26 28 31 32 36 39 41 37 39 32 33 35 35 36 37 39 41 42 42 42 40 34 32 28 28 27
24 27 29 29 30 31 32 33 35 34 39 42 46 38 34 34 34 36 35 37 40 41 42 43 43 41 41 37 32 27 25 30
26 29 32 32 34 35 36 37 38 37 43 45 36 35 34 33 34 34 36 39 41 41 41 42 42 40 37 36 31 27 26 29
27 29 33 34 35 39 39 40 39 39 41 43 28 30 32 33 33 34 37 39 41 41 41 42 41 37 36 33 29 26 19 26
28 32 35 37 39 41 42 42 40 41 42 44 30 32 33 33 33 36 38 40 41 40 40 40 39 37 36 30 28 26 26 28
24 29 33 36 40 42 42 40 40 43 44 35 31 32 31 31 36 37 39 41 40 39 38 37 34 36 31 29 27 26 26 27
23 25 29 34 38 41 39 39 41 41 46 32 34 33 29 33 35 38 39 39 39 38 36 35 33 37 28 28 26 26 24 25
23 27 30 34 38 40 37 38 44 45 35 33 30 29 31 32 36 38 39 39 38 35 35 34 33 34 28 26 26 25 24 25

GFSFLT1_700_spd_030.txt.gz
Wind_Speed
8 10 11 12 16 10 12 12 13 13 14 13 9 10 13 16 16 15 12 12 13 17 19 21 23 28 33 36 38 38 38 40
13 12 15 16 22 13 11 13 14 16 16 14 12 13 13 12 9 11 14 13 16 19 24 27 30 32 36 38 39 39 39 39
15 19 23 24 24 20 18 19 18 18 16 15 14 14 13 11 12 14 14 15 18 23 25 27 32 34 36 37 37 39 38 38
21 24 25 25 26 23 23 18 15 13 15 14 13 13 11 14 17 17 16 20 22 26 27 30 32 35 35 36 36 38 38 38
28 26 26 25 24 23 18 14 14 16 15 13 11 12 17 20 22 22 24 26 23 27 30 32 33 34 35 35 35 37 38 40
29 25 21 22 21 18 16 15 17 13 13 14 12 20 22 22 24 27 29 33 34 32 33 34 36 37 36 37 38 39 40 40
26 25 22 18 19 18 17 16 16 12 15 16 17 19 21 24 27 29 32 33 35 34 34 34 35 37 37 36 38 40 39 40
22 25 21 19 20 18 16 17 16 16 16 17 19 21 25 28 28 33 37 32 35 33 34 34 36 37 37 36 37 37 36 36
21 21 21 20 19 18 18 20 21 19 18 19 21 25 29 32 33 36 35 32 33 34 33 35 36 37 37 36 39 39 35 32
20 19 23 24 22 21 20 23 24 23 22 24 26 29 34 35 38 37 38 29 31 34 35 37 37 38 38 36 36 37 33 27
21 21 25 26 26 26 23 24 28 27 26 26 30 33 35 38 43 46 33 30 32 34 36 38 38 39 40 42 37 34 33 31
22 23 27 29 30 30 27 27 32 32 31 32 35 37 40 40 45 36 33 30 33 35 37 38 39 40 40 41 36 33 33 30
24 24 26 30 31 31 30 30 35 36 36 35 38 39 42 43 49 35 34 34 34 36 39 39 39 40 40 39 39 36 32 28
24 28 29 32 34 33 34 33 37 40 41 37 39 41 47 38 45 32 31 33 34 38 39 39 39 40 39 36 36 34 30 28
23 27 31 36 38 37 36 37 40 42 41 38 41 43 43 39 38 29 31 31 36 36 37 38 38 39 36 32 32 32 30 28
23 26 32 35 37 42 39 40 44 45 40 39 39 47 46 35 31 30 31 32 33 37 37 37 35 36 33 31 32 31 29 28
23 28 30 36 36 39 39 42 46 45 39 39 45 40 42 35 30 30 30 30 32 37 37 36 35 34 31 28 30 28 27 28
20 23 29 28 31 35 37 43 48 47 42 42 42 51 34 30 27 30 31 31 33 35 36 34 36 34 31 28 28 27 27 29
18 19 23 26 30 32 37 42 48 46 43 43 38 31 37 29 28 32 26 30 34 34 34 32 33 34 30 28 27 28 29 29

GFSFLT1_700_spd_033.txt.gz
Wind_Speed
8 8 6 1 5 3 5 4 8 9 10 11 10 9 11 14 17 19 19 21 20 18 20 18 21 25 28 29 31 35 35 34
10 12 11 8 7 5 6 8 12 12 15 16 11 11 14 15 16 16 18 19 18 18 19 20 24 25 27 31 34 35 34 33
15 16 17 15 14 15 14 14 16 16 17 17 12 13 16 14 16 17 18 17 18 18 24 24 24 26 30 32 35 35 34 34
19 21 21 22 22 22 20 17 19 20 16 15 16 17 15 15 19 18 20 20 21 24 27 25 31 28 30 32 34 34 35 35
24 23 24 25 23 21 21 22 20 18 16 17 16 14 17 18 17 17 18 23 27 28 27 30 32 32 33 33 32 34 36 36
27 28 31 28 28 26 23 24 19 17 16 17 17 17 19 16 18 17 19 25 27 31 32 33 35 35 35 34 34 36 37 37
28 30 34 34 24 24 22 21 20 17 17 18 19 18 20 20 22 24 28 30 33 37 35 32 35 35 35 34 35 37 37 37
30 34 33 30 19 22 23 23 19 17 17 17 19 20 21 23 26 30 31 34 38 40 37 31 35 34 34 36 37 37 35 36
36 38 33 20 17 21 22 22 20 18 17 18 21 22 24 26 30 33 35 37 41 52 40 32 34 33 34 35 36 36 37 37
23 19 19 19 17 19 21 23 22 20 20 20 21 24 28 32 35 37 40 40 45 50 32 35 37 35 35 35 35 34 34 36
18 21 20 19 18 20 23 27 26 24 24 24 26 28 31 35 37 39 41 44 41 40 37 36 34 34 36 36 38 36 34 33
14 17 19 21 22 22 25 29 31 31 30 29 29 31 34 36 40 45 45 49 36 33 34 35 34 34 35 35 37 34 32 33
21 20 22 22 22 21 21 27 33 36 36 34 35 35 37 39 42 48 46 48 38 34 35 34 32 33 37 36 35 34 32 33
23 26 29 29 28 29 30 30 31 32 35 38 40 38 41 45 45 46 48 51 33 32 34 32 33 35 38 37 35 35 33 32
22 27 30 32 33 34 34 36 41 36 36 37 35 38 44 44 46 42 46 33 27 34 31 31 35 35 36 32 32 32 32 31
13 25 28 29 31 33 36 38 37 38 41 40 38 42 44 48 45 48 38 29 31 32 32 33 30 33 35 30 30 31 31 30
21 18 22 27 29 32 34 36 37 38 40 43 42 45 47 48 48 37 33 29 30 38 26 29 27 33 33 29 28 29 30 29
19 22 24 26 28 30 35 35 37 39 39 41 46 50 54 52 52 42 33 30 32 25 26 29 31 33 33 28 27 29 30 29
20 18 20 23 28 32 32 34 37 38 40 44 48 50 53 56 52 35 26 29 28 22 27 31 33 31 32 29 28 29 30 29

GFSFLT1_700_spd_036.txt.gz
Wind_Speed
6 7 11 12 9 8 6 4 3 4 6 5 7 9 8 10 14 18 19 19 20 21 22 22 22 24 25 28 30 32 34 35
7 6 5 6 9 8 6 6 6 8 9 9 10 10 13 13 17 18 19 20 20 21 23 22 23 26 27 29 33 34 34 36
13 11 10 10 9 10 10 10 10 13 13 13 13 12 15 17 18 19 19 19 21 23 23 24 26 32 30 34 34 35 36 36
14 15 14 16 14 12 13 13 15 17 17 18 16 15 16 16 17 17 18 21 24 26 24 26 31 30 32 35 35 37 36 36
19 19 17 18 16 16 17 16 16 20 23 20 17 16 17 17 17 17 19 21 24 25 28 29 27 31 35 35 38 38 40 37
25 25 21 19 19 19 19 22 23 26 24 18 17 16 18 18 17 17 19 22 24 24 28 31 35 40 42 35 39 39 41 39
28 25 24 21 22 20 22 25 27 26 21 18 16 15 16 16 16 17 22 24 27 31 30 35 35 46 35 32 37 41 41 39
30 27 25 26 28 24 21 25 29 24 19 18 17 16 15 16 19 23 27 30 33 30 37 45 31 46 35 35 39 40 40 42
25 24 28 29 30 24 25 24 22 19 18 19 21 20 20 23 27 30 32 31 37 42 39 39 43 46 38 39 39 39 40 40
24 26 32 36 27 25 22 22 21 22 21 20 22 24 27 29 33 35 36 40 43 43 47 55 48 36 39 39 39 38 37 38
20 25 25 23 21 20 23 23 25 25 23 23 26 29 32 34 35 37 40 45 44 47 50 54 50 42 37 39 37 37 36 36
7 6 7 10 13 16 19 23 23 23 24 26 29 32 35 35 36 42 40 47 56 48 52 49 50 38 38 39 39 35 35 35
10 10 12 12 12 16 17 16 17 19 20 22 24 28 34 35 36 38 48 46 45 50 54 57 40 39 40 36 32 32 34 35
14 17 19 19 20 20 21 23 25 26 29 30 32 29 28 31 37 37 41 44 52 53 52 43 38 39 34 43 33 31 33 35
18 22 23 25 26 26 26 27 28 28 28 31 33 33 34 42 40 38 48 45 50 49 49 42 32 36 47 37 30 29 32 36
16 21 25 27 29 29 31 31 33 33 32 31 31 32 37 41 44 44 64 48 63 52 43 43 39 42 36 28 28 30 33 35
16 19 24 24 22 26 25 28 32 33 33 33 33 39 41 42 51 41 52 57 52 46 42 37 40 31 26 28 31 32 33 34
18 19 21 22 23 21 23 26 30 33 33 35 36 38 43 42 45 51 54 58 46 34 38 43 27 26 27 30 32 32 32 34
17 19 21 23 25 25 30 29 29 31 33 35 38 43 48 52 55 56 55 37 38 39 29 27 27 28 30 32 32 31 32 33

GFSFLT1_700_spd_039.txt.gz
Wind_Speed
13 12 12 11 10 9 7 5 4 3 2 1 2 3 6 8 11 13 16 20 21 19 19 18 18 19 21 24 29 33 34 36
11 12 11 10 9 8 6 4 2 1 2 4 6 7 9 11 14 17 18 20 20 19 19 20 23 25 27 30 37 42 41 39
9 10 11 10 9 10 8 6 5 5 6 8 10 11 12 15 17 18 19 20 19 20 22 23 25 28 31 38 42 39 38 43
4 4 5 5 9 10 10 10 10 9 11 13 13 14 13 15 17 18 19 19 19 21 22 25 28 32 36 34 35 37 42 43
15 11 9 9 6 8 11 11 12 12 15 16 16 15 14 16 18 19 18 18 20 22 24 28 29 33 34 39 36 37 38 35
21 17 14 10 11 12 13 12 14 16 18 20 19 14 13 18 19 19 19 20 21 22 24 30 34 39 40 41 40 38 36 38
22 21 20 18 14 15 14 13 17 19 21 21 18 16 14 18 18 19 20 21 23 27 31 37 38 41 41 45 49 40 36 40
27 24 23 22 17 15 14 16 19 20 23 23 16 18 19 21 20 23 25 28 31 35 36 43 39 41 45 48 57 47 38 40
22 24 23 21 16 15 16 20 20 20 24 19 20 21 22 24 25 28 29 29 32 39 44 44 45 47 44 54 48 42 41 36
17 22 21 19 18 18 20 20 22 22 22 23 23 24 25 27 31 30 33 36 40 41 49 44 46 51 50 53 49 45 39 39
19 13 12 15 21 20 19 21 22 21 21 23 26 26 27 28 30 31 35 37 46 40 42 41 46 47 51 52 52 40 40 41
11 6 5 7 9 8 9 13 16 15 15 16 17 20 22 23 28 32 35 38 38 41 42 47 46 50 53 50 43 39 44 45
1 2 5 7 9 12 13 15 13 14 16 18 21 22 25 26 28 29 27 33 41 38 42 45 49 52 52 44 41 42 45 40
7 8 11 14 15 17 17 18 20 22 22 24 24 23 25 26 29 29 30 38 39 47 52 49 52 56 47 38 43 45 40 35
13 16 17 18 21 25 25 25 26 27 28 28 28 27 29 30 30 37 38 44 39 44 51 48 52 49 38 39 45 35 31 32
18 17 18 20 24 27 28 29 29 30 32 30 30 31 33 33 33 37 42 44 43 51 51 51 39 40 44 43 31 32 31 33
18 18 18 21 22 22 21 26 27 27 28 31 31 33 33 33 35 44 45 50 51 54 39 34 33 38 32 28 29 31 34 37
15 18 19 21 20 20 19 18 20 25 27 29 33 33 36 40 46 44 47 54 45 33 37 36 27 24 27 28 32 36 35 36
16 18 19 21 22 22 24 25 26 23 25 27 31 34 38 41 44 47 51 39 38 43 32 23 24 27 28 32 33 34 35 35

GFSFLT1_700_spd_042.txt.gz
Wind_Speed
16 17 16 16 15 14 14 13 11 9 8 6 6 6 6 5 7 10 11 12 15 19 18 16 13 14 16 18 21 27 32 35
12 13 13 14 12 9 8 7 5 4 4 3 1 1 5 6 9 12 13 15 17 20 17 15 15 16 19 22 26 31 34 37
13 12 10 9 9 8 6 5 4 4 3 3 4 7 8 9 11 12 13 16 19 20 18 18 18 19 23 27 32 36 39 42
7 8 6 5 4 6 7 7 7 7 7 9 9 10 10 11 9 12 14 17 19 20 19 20 21 24 29 32 36 39 37 37
10 8 7 2 3 5 8 9 11 11 12 12 12 13 13 13 13 15 17 18 19 19 20 21 24 29 32 34 36 38 45 46
14 11 7 7 7 6 7 10 13 13 14 16 16 16 15 16 18 18 18 19 20 21 22 25 28 32 36 39 44 38 43 47
18 15 15 15 13 12 12 13 11 14 18 18 18 17 18 20 22 21 20 22 24 25 27 30 34 38 41 43 41 46 39 47
22 18 16 14 15 12 13 15 13 14 15 18 18 19 20 19 21 24 25 26 28 30 33 36 39 40 47 42 41 47 45 47
21 20 19 15 14 13 15 17 16 16 18 19 20 19 18 20 22 25 26 28 31 34 36 37 44 45 44 45 42 45 47 49
10 13 16 17 16 15 16 16 20 21 20 20 19 17 19 23 24 26 29 32 33 33 42 37 41 33 43 37 39 44 47 51
6 8 7 10 14 13 18 19 19 20 20 19 19 20 23 23 22 24 26 29 28 31 33 34 36 43 44 46 48 49 45 39
11 12 9 7 6 6 6 7 8 12 12 14 15 17 19 22 23 21 24 26 28 27 32 35 40 38 43 46 44 50 44 39
4 5 3 3 3 3 6 9 11 12 15 17 17 18 20 22 22 25 29 29 31 36 30 41 46 45 46 50 46 39 42 43
4 5 7 9 10 12 14 18 19 19 23 24 24 23 22 26 28 27 30 29 34 33 44 39 43 41 49 50 38 40 41 41
10 10 11 14 18 18 20 23 24 25 27 28 28 27 30 30 31 34 32 34 38 39 44 46 51 45 36 40 39 39 41 33
17 16 18 19 19 22 23 25 27 29 29 28 28 31 32 34 35 36 37 37 41 39 39 45 42 34 40 36 36 36 32 31
19 19 18 18 20 23 24 24 24 25 28 28 27 29 32 33 35 37 41 39 39 49 45 41 35 42 32 30 30 29 30 33
17 18 19 22 23 23 23 24 24 24 25 28 30 31 31 32 34 37 39 45 53 40 40 35 43 34 29 28 27 31 33 34
14 18 21 23 23 24 26 27 27 28 28 26 27 28 29 31 37 41 41 50 39 37 39 43 32 29 28 28 31 34 35 36

GFSFLT1_700_spd_045.txt.gz
Wind_Speed
17 16 14 13 14 16 16 15 14 14 14 13 13 12 12 11 11 10 11 12 11 12 13 14 14 12 13 14 17 20 24 27
16 17 16 15 16 16 14 13 12 11 10 8 8 8 8 8 8 9 11 11 12 15 16 15 14 14 16 17 21 23 25 28
17 16 14 13 13 13 12 11 10 10 9 9 8 8 7 8 9 8 9 10 14 15 16 16 16 17 19 22 23 26 28 32
13 12 12 12 11 10 10 9 10 11 11 10 8 6 8 10 9 9 11 14 16 15 16 17 19 20 22 23 25 29 33 38
14 13 13 11 10 12 13 13 13 13 14 13 10 9 10 12 15 16 17 18 17 16 18 19 21 23 24 27 31 34 36 41
17 15 13 12 12 9 11 13 14 13 16 16 13 13 14 14 19 20 22 22 19 19 21 22 24 26 28 32 35 39 43 42
21 18 16 16 14 15 14 11 13 15 16 17 15 15 16 19 20 23 23 25 23 22 24 26 28 32 34 36 41 42 43 38
22 22 20 17 17 14 15 15 14 14 14 15 16 18 19 22 24 24 25 25 25 24 29 30 30 34 38 39 47 39 45 41
22 22 23 22 16 16 18 18 17 17 18 18 19 20 22 24 25 25 24 25 25 27 31 31 30 32 41 35 36 37 39 42
15 19 21 20 21 18 17 18 18 19 20 22 22 22 24 22 23 25 26 25 25 26 27 30 33 36 38 36 34 33 37 41
12 14 18 20 20 21 20 18 20 20 21 22 23 23 25 23 23 24 25 26 26 24 27 30 33 32 34 41 41 45 44 45
7 10 12 12 16 19 21 21 19 14 14 15 18 19 22 23 24 26 29 25 26 27 28 29 34 37 36 39 38 43 42 39
1 5 10 9 8 10 10 11 11 11 14 16 18 20 21 22 23 25 24 27 28 29 29 34 38 40 35 45 49 43 35 40
4 4 5 6 7 7 9 13 15 17 19 22 25 26 26 26 26 24 26 27 31 35 32 40 39 41 41 38 35 33 36 35
13 11 11 11 11 12 16 18 20 21 24 26 29 29 29 28 28 29 30 30 32 33 36 36 40 44 45 35 31 36 34 32
17 16 17 17 17 19 19 21 23 25 28 30 31 31 30 29 30 32 32 32 33 34 36 44 44 43 36 32 37 33 31 31
21 22 22 23 22 21 21 22 24 26 26 27 29 30 30 32 33 32 28 32 33 45 41 46 36 34 34 36 30 31 30 31
23 21 20 19 18 19 21 25 26 26 26 26 28 30 32 33 32 30 28 34 35 45 42 34 37 36 39 33 29 31 32 31
18 17 18 18 20 23 24 24 24 25 25 26 27 29 31 32 31 28 33 36 37 32 33 37 38 37 31 29 29 31 32 34

GFSFLT1_700_spd_048.txt.gz
Wind_Speed
13 14 14 13 13 13 14 14 16 17 17 16 16 17 18 19 20 19 18 17 16 16 16 15 14 13 15 14 14 15 18 20
13 14 14 13 13 13 13 14 14 13 13 14 13 13 13 13 14 15 16 16 16 17 17 17 15 14 15 15 16 18 20 22
14 14 15 15 14 14 15 15 14 14 13 13 13 12 13 14 15 15 16 17 17 18 17 17 15 16 17 18 19 21 24 25
17 16 14 15 15 15 15 15 14 15 15 16 16 16 15 15 13 14 15 17 17 18 17 16 16 19 20 21 22 23 27 27
17 17 17 17 16 16 17 17 17 16 17 16 15 14 12 12 14 16 18 19 20 21 18 18 19 21 23 24 24 26 29 33
15 18 18 16 16 16 16 17 17 17 17 18 18 17 16 18 18 20 22 24 26 24 21 22 22 24 26 26 27 31 34 35
23 20 19 20 20 19 17 18 18 20 20 18 19 19 19 19 20 24 25 26 27 28 27 26 26 26 27 26 29 34 39 42
24 27 25 23 21 20 21 20 17 17 18 19 18 22 23 22 24 25 27 28 29 27 26 27 28 29 29 30 34 31 38 38
32 26 28 28 24 23 23 22 20 19 17 17 20 21 23 24 26 28 29 29 29 27 27 26 30 31 29 35 34 42 35 31
26 34 36 32 30 26 21 19 19 21 20 20 27 27 25 27 29 29 29 27 27 28 30 32 29 30 32 35 39 45 43 36
19 25 29 31 32 31 28 22 20 22 25 26 27 27 27 28 30 29 28 27 29 33 39 35 28 30 32 38 40 39 42 33
15 19 21 25 28 29 28 29 29 26 25 26 26 25 26 26 26 27 30 32 37 40 30 31 33 30 36 45 45 37 39 35
5 11 17 21 20 24 26 26 25 25 24 20 19 21 22 24 26 28 31 32 32 27 30 35 33 36 35 42 55 39 40 36
6 8 12 13 12 13 14 15 16 16 17 20 24 25 27 28 30 30 31 36 26 29 35 37 30 39 36 33 40 45 38 33
13 14 14 13 14 14 16 17 17 20 23 25 26 28 30 32 33 33 31 33 32 33 33 37 39 35 42 36 39 38 35 36
17 22 19 18 18 18 20 21 20 23 25 27 29 31 33 34 33 33 33 34 34 34 35 35 35 37 36 40 35 34 38 38
17 23 24 23 23 23 23 25 27 27 27 28 29 29 30 31 32 34 35 37 37 31 34 35 33 36 32 32 34 38 37 32
20 21 26 27 26 24 21 21 22 24 27 29 30 30 30 32 34 35 36 34 33 26 35 35 29 29 33 36 33 32 32 30
22 24 23 20 19 19 20 22 25 26 27 27 27 27 29 31 32 34 35 35 32 29 31 30 33 34 31 31 33 33 34 33

GFSFLT1_700_spd_051.txt.gz
Wind_Speed
11 12 13 14 13 14 13 15 17 19 18 17 17 18 18 19 20 20 21 21 20 19 18 18 16 19 18 17 16 16 18 18
11 12 13 14 15 15 16 17 18 17 17 17 16 16 18 19 20 21 20 21 20 20 20 18 20 22 20 17 18 19 20 19
13 14 14 14 14 14 15 16 15 14 14 15 15 15 16 16 16 16 17 19 19 21 22 20 23 24 21 19 20 21 23 20
14 15 15 16 16 15 15 14 16 15 15 15 16 16 15 15 16 17 17 19 22 24 24 24 24 24 21 21 20 21 26 26
16 16 16 16 16 17 17 16 16 16 17 18 16 15 15 14 15 16 17 20 21 22 24 26 25 25 24 22 22 24 25 32
20 17 16 16 16 15 15 16 17 18 18 19 18 17 15 16 18 20 20 21 23 25 28 28 27 27 27 25 26 26 29 31
22 20 21 21 18 19 20 20 20 20 20 19 19 17 19 20 21 20 22 25 25 27 29 31 32 31 32 30 31 31 33 33
26 26 26 23 24 23 21 21 21 22 24 20 19 18 20 23 23 25 25 27 28 29 32 32 32 33 32 34 34 34 31 35
29 29 30 27 26 26 25 24 23 27 24 21 21 21 20 23 24 28 29 30 31 32 33 33 33 33 38 35 33 42 32 38
24 30 31 30 33 33 28 27 25 26 30 27 12 25 18 25 28 31 32 32 33 33 32 33 34 39 38 40 37 38 39 33
17 23 29 30 30 32 32 30 26 23 25 19 21 22 25 29 30 30 31 31 33 32 32 33 34 37 43 34 34 36 36 41
10 16 24 30 28 31 35 34 32 29 26 26 26 28 28 28 28 29 27 28 29 31 32 35 39 33 34 35 35 29 35 41
7 13 16 20 22 28 29 30 32 32 31 31 32 28 25 23 24 25 27 30 30 32 34 35 32 37 35 37 37 43 38 46
8 9 13 18 17 19 20 22 24 27 29 30 28 22 23 24 26 28 31 33 33 33 34 36 33 34 36 41 43 42 45 45
10 11 13 15 17 19 21 21 23 24 23 22 22 23 25 28 30 32 34 34 35 35 36 37 37 38 36 39 36 40 44 40
15 15 19 21 21 21 22 20 23 22 20 21 23 26 29 32 34 35 37 36 36 36 37 37 37 35 36 37 43 41 40 39
21 21 24 28 27 26 25 23 23 24 26 27 30 31 32 33 34 35 35 34 36 36 38 37 35 38 38 39 38 37 39 39
22 26 26 27 32 29 27 28 29 30 32 30 30 32 34 34 34 33 34 35 36 37 38 38 36 37 34 34 37 36 36 36
25 23 24 26 32 33 31 28 26 25 26 29 31 32 31 31 32 33 34 35 36 36 34 31 30 31 32 33 35 36 37 37

GFSFLT1_700_spd_054.txt.gz
Wind_Speed
5 8 9 10 13 14 15 21 28 31 30 30 30 24 22 23 25 24 22 20 17 17 17 17 17 17 17 16 17 18 19 18
6 9 10 10 12 15 16 16 17 18 19 19 21 22 21 20 20 19 19 18 18 19 20 20 18 21 21 19 19 21 19 20
8 11 12 13 13 13 15 16 14 15 15 15 15 16 16 17 17 21 19 19 19 20 21 21 18 24 22 22 22 22 22 22
11 11 11 11 12 14 13 14 14 14 14 16 16 18 18 18 17 17 18 17 17 18 20 23 21 23 25 25 24 25 24 26
12 13 12 12 10 11 14 14 14 14 15 15 17 16 15 14 16 15 16 15 17 19 20 23 24 23 27 27 28 28 26 28
15 14 14 14 14 13 13 14 14 14 16 15 15 14 15 15 15 16 16 14 17 19 20 23 24 27 29 30 30 30 29 28
24 16 17 17 17 17 17 17 16 17 16 17 17 17 17 18 18 18 19 17 18 21 23 26 26 27 30 32 34 35 34 35
27 27 22 23 23 21 19 19 18 19 19 19 19 21 21 21 22 24 23 21 21 22 25 26 27 29 31 32 36 36 39 38
27 30 31 27 24 25 23 21 21 22 22 23 16 14 25 30 27 23 26 25 24 27 27 28 28 30 29 35 38 37 33 33
27 21 30 34 31 27 26 25 24 26 28 28 24 26 16 8 19 22 25 27 29 31 28 28 30 32 34 33 37 36 39 34
21 25 28 33 35 33 30 29 30 32 32 27 24 25 19 19 16 19 25 29 29 29 30 30 30 33 34 34 35 42 35 40
16 19 25 31 34 33 32 32 31 36 36 29 28 24 20 18 21 23 26 26 25 28 28 29 31 32 35 33 32 44 35 35
7 10 19 29 29 31 32 34 32 31 32 29 30 24 21 20 20 22 23 23 25 28 30 31 32 33 31 34 33 37 36 35
12 11 11 15 25 32 29 29 35 28 30 24 23 23 20 22 21 22 23 26 28 31 32 33 34 34 34 34 38 36 37 39
12 14 13 14 16 22 28 25 23 23 25 25 26 19 17 20 22 25 27 30 33 35 36 36 36 35 38 39 40 40 40 39
15 16 17 16 16 20 23 23 22 21 20 20 19 21 21 24 26 29 32 34 35 35 36 36 37 37 37 38 37 36 37 37
17 19 22 23 20 25 24 22 21 21 23 23 23 25 27 29 32 33 33 35 36 35 34 34 35 35 37 38 37 35 33 34
18 22 22 25 28 24 24 27 28 25 25 27 28 31 33 32 32 34 35 33 32 33 34 35 35 34 33 31 30 32 32 32
24 28 29 31 30 29 30 31 30 29 31 33 34 29 29 32 33 32 31 32 33 34 34 33 33 32 31 30 30 30 32 33

GFSFLT1_700_spd_057.txt.gz
Wind_Speed
5 3 3 7 11 14 16 18 15 8 10 14 17 20 20 31 34 34 30 24 23 20 19 16 15 14 14 15 15 15 16 16
6 6 6 7 12 13 10 15 23 23 29 30 30 33 34 37 33 31 29 26 24 22 20 17 16 16 17 18 18 17 18 19
8 8 8 8 9 10 11 11 16 16 19 20 19 22 24 26 26 26 27 27 25 22 20 18 15 18 20 19 19 20 21 21
9 10 8 9 7 8 10 11 14 15 16 17 19 21 21 22 23 24 25 22 21 20 18 18 16 19 21 22 22 23 25 25
12 12 12 10 10 10 10 11 11 13 14 15 13 14 15 14 14 14 17 17 17 17 19 20 17 18 23 22 23 25 27 28
10 12 11 12 13 11 10 12 11 11 12 12 14 14 14 14 14 15 16 17 16 17 17 20 20 18 19 23 25 25 28 34
8 10 16 15 15 16 16 15 14 14 13 13 12 13 14 15 16 17 17 16 15 16 18 17 19 21 22 24 25 29 31 31
19 20 18 20 20 18 19 19 18 18 16 17 15 12 9 14 15 19 22 20 18 16 18 21 21 21 22 24 26 26 38 27
21 19 15 17 21 23 21 21 20 20 19 20 19 17 15 10 22 25 26 25 22 20 22 22 24 22 25 27 28 28 31 32
26 22 19 14 16 18 23 25 25 24 23 21 19 19 23 15 9 13 26 24 26 21 23 24 25 24 26 27 28 30 30 36
29 30 28 25 23 22 21 24 26 26 26 27 25 23 29 25 18 21 17 23 25 22 25 25 24 25 26 27 30 29 29 33
17 21 35 33 30 30 26 26 28 25 27 30 31 26 29 28 24 25 19 17 20 23 24 23 25 26 28 27 27 27 28 34
12 22 27 28 30 33 31 33 32 29 29 30 31 30 34 37 32 22 13 17 19 20 22 24 26 28 29 30 29 31 32 29
18 16 14 27 29 28 35 32 32 31 34 23 21 22 19 17 15 18 18 17 19 22 24 27 29 31 32 33 30 27 31 34
20 15 14 16 22 30 31 29 30 29 23 22 25 21 17 16 16 20 19 20 23 26 28 31 33 33 32 30 29 34 33 36
22 22 19 13 18 19 25 26 28 25 25 23 23 17 17 17 17 18 21 24 27 30 32 33 34 33 32 32 33 33 33 35
25 22 23 23 21 19 20 21 25 25 25 21 19 18 19 20 21 24 26 29 31 31 33 32 32 32 32 32 33 33 30 29
23 21 23 26 26 29 23 24 24 26 26 25 24 23 25 25 26 29 30 29 31 32 31 31 32 32 31 32 31 30 28 26
25 28 31 31 33 32 26 23 22 26 28 28 28 28 29 30 30 26 29 30 30 30 31 32 32 31 31 30 28 27 27 27

GFSFLT1_700_spd_060.txt.gz
Wind_Speed
6 5 1 2 3 7 6 21 18 17 21 20 25 31 42 36 29 37 36 39 32 37 25 22 19 16 13 11 10 11 10 12
8 6 3 4 6 9 12 14 22 19 18 22 29 23 33 33 32 33 39 37 37 30 24 20 18 16 15 14 13 13 14 17
10 8 5 4 6 8 13 16 17 20 19 21 25 25 30 26 31 40 39 32 35 29 24 24 21 19 19 16 16 15 17 20
12 11 8 6 4 6 9 12 13 14 21 24 26 27 31 34 38 36 33 37 33 28 25 25 22 20 18 18 18 17 19 22
16 14 12 10 8 6 6 8 9 12 13 17 19 22 23 24 26 27 30 30 28 27 26 25 22 19 17 18 19 19 20 23
17 15 14 12 13 10 9 10 10 10 10 12 14 15 15 17 20 22 26 27 25 27 26 24 20 19 17 20 20 20 23 25
12 12 16 18 18 18 16 14 13 13 13 13 13 13 15 17 18 20 21 21 22 24 23 22 21 19 18 19 20 22 25 28
13 18 19 21 23 21 19 17 16 15 16 16 15 14 17 16 17 19 21 20 19 17 18 20 21 21 22 21 19 24 27 27
16 17 17 18 20 23 23 21 19 18 18 17 17 18 19 14 16 23 21 21 18 19 22 24 25 28 25 21 18 23 24 28
23 23 15 13 19 20 23 23 23 23 19 19 20 21 21 20 17 15 22 21 23 23 24 27 23 24 28 18 23 25 27 29
25 28 27 23 19 19 22 19 19 20 22 24 23 22 25 26 27 21 21 19 19 23 28 29 27 26 21 23 25 28 28 28
20 26 26 29 26 26 27 27 25 23 23 23 25 26 28 32 32 35 33 35 26 25 26 22 26 23 22 26 28 29 29 30
17 17 21 27 30 31 34 35 34 32 35 33 23 24 26 18 32 31 37 30 22 27 25 24 22 22 25 28 30 30 32 32
24 24 20 22 28 31 32 33 34 41 39 32 26 28 18 23 22 10 8 13 22 23 23 22 24 26 28 31 33 33 33 36
22 21 20 20 24 24 26 29 27 32 33 30 22 17 13 21 21 21 16 17 18 19 22 24 27 30 33 35 36 32 33 28
24 23 23 23 19 22 21 21 22 23 25 23 21 19 18 18 20 21 20 19 20 21 25 28 31 34 35 35 32 32 28 35
26 28 24 26 25 22 21 21 19 21 24 24 25 23 20 19 19 21 18 20 24 26 29 32 33 34 33 31 31 31 32 32
29 29 31 30 26 25 21 21 21 24 25 25 26 24 22 22 22 22 22 24 27 31 30 32 32 32 31 30 30 31 31 30
25 28 29 28 29 29 27 25 24 24 28 27 24 26 25 26 26 27 29 30 31 31 32 32 30 29 29 29 29 29 29 29

GFSFLT1_700_spd_063.txt.gz
Wind_Speed
8 8 6 7 9 11 11 16 16 17 19 18 21 20 38 41 41 49 43 41 34 29 31 30 27 21 16 12 12 11 8 8
7 7 5 3 5 6 8 11 22 19 20 22 25 29 35 32 44 44 43 37 34 35 34 33 27 21 15 16 16 14 11 13
6 9 6 1 3 4 7 10 8 10 16 19 24 32 33 34 44 33 35 42 34 36 38 30 25 20 18 20 19 14 14 16
9 9 8 3 2 3 6 8 9 9 10 17 23 26 27 32 34 34 32 37 41 42 40 31 25 22 22 23 21 17 17 19
13 12 10 5 5 3 4 7 8 9 11 13 17 20 23 29 30 32 36 37 42 41 40 29 27 26 25 24 22 20 22 23
13 11 11 10 10 7 5 5 5 8 10 11 12 14 17 21 25 28 32 36 39 40 33 28 28 28 27 24 23 23 23 25
16 14 16 15 15 13 11 8 7 6 6 8 9 12 15 17 20 24 28 30 33 32 26 30 31 28 27 24 25 27 26 25
19 19 18 19 20 18 15 13 11 10 10 11 10 10 11 13 17 19 23 26 25 23 26 29 28 27 27 28 28 28 30 24
19 20 17 16 17 19 19 19 16 14 14 13 14 15 15 15 14 18 20 21 20 22 25 26 26 28 30 32 34 40 21 19
20 18 19 19 20 18 17 17 21 22 17 17 17 18 20 19 19 16 21 23 23 26 28 30 30 31 34 32 33 20 16 22
20 20 20 18 16 15 19 21 19 19 23 25 22 22 24 24 27 26 21 21 29 31 30 31 32 34 33 30 24 25 26 26
17 20 19 21 24 28 25 25 27 26 21 24 32 32 32 32 32 32 31 29 26 29 33 31 26 30 31 28 27 28 29 30
16 15 13 16 22 27 32 33 33 34 32 31 31 38 40 34 39 32 36 36 34 42 41 29 32 29 27 25 28 31 33 33
18 17 15 18 15 17 22 29 32 36 36 38 36 31 33 20 12 35 15 13 29 22 26 30 28 26 24 30 29 32 35 36
19 21 18 19 17 16 16 19 20 26 30 29 29 29 17 16 19 22 26 20 19 25 25 26 26 27 30 32 33 35 36 38
24 25 25 21 18 18 16 14 16 19 22 24 22 21 22 20 18 20 22 27 24 23 24 26 28 29 30 33 36 39 39 37
26 27 26 26 24 20 17 16 17 19 20 22 21 21 21 19 21 21 21 23 24 25 28 28 28 30 33 36 39 38 38 38
25 25 29 32 28 25 22 22 22 20 20 19 22 23 23 22 21 22 23 24 23 25 28 29 30 34 37 38 37 37 36 36
31 24 23 27 28 28 25 25 25 24 22 19 22 26 25 24 25 26 27 27 28 29 31 33 35 36 35 34 34 35 36 37

GFSFLT1_700_spd_066.txt.gz
Wind_Speed
6 6 6 10 12 11 6 20 19 16 23 16 18 22 27 34 37 42 40 42 39 39 33 34 36 24 24 19 13 12 11 9
7 7 6 8 9 7 7 13 17 16 21 26 23 19 24 34 43 48 44 42 45 40 42 30 28 27 23 18 17 15 14 13
7 6 5 6 7 7 6 6 14 16 20 19 21 23 35 30 47 49 42 42 45 39 28 29 28 27 24 20 18 16 17 17
9 8 5 3 3 4 4 5 6 8 16 24 25 25 28 34 36 39 46 46 41 39 34 34 29 31 27 22 19 21 21 21
12 9 6 5 5 2 2 4 5 6 5 7 15 20 27 25 23 36 42 42 38 36 36 32 32 33 26 24 24 24 23 24
13 10 9 10 7 6 3 1 3 6 7 6 8 12 20 26 23 23 25 33 29 30 33 35 40 34 27 25 26 25 27 28
16 15 15 14 12 9 6 4 3 4 6 8 8 7 9 16 21 23 24 25 27 33 36 37 36 30 29 26 27 28 30 31
18 19 17 15 14 12 10 7 6 5 4 5 9 10 11 13 14 15 18 21 27 28 32 36 37 35 33 30 31 33 33 33
22 22 18 14 13 13 13 12 11 8 8 6 7 9 11 14 16 19 22 24 27 28 28 30 31 35 36 32 35 36 35 37
20 23 20 16 16 13 11 12 14 15 14 13 13 14 15 15 17 20 20 22 24 27 30 32 35 38 35 35 36 35 35 43
20 24 20 16 16 15 14 15 18 17 20 21 20 20 21 21 22 24 22 26 28 31 32 35 37 36 36 36 36 41 37 26
12 17 22 18 20 21 20 20 22 23 20 20 23 25 27 28 28 28 30 29 30 33 38 37 35 40 39 37 40 38 38 35
10 11 17 21 17 19 21 24 27 29 31 27 23 22 25 32 34 35 37 39 39 40 39 38 36 42 35 37 37 24 28 33
17 16 14 12 13 14 16 21 22 25 27 28 29 30 30 33 25 21 36 40 46 38 41 44 43 41 35 34 30 31 31 32
24 22 17 13 12 11 14 12 14 14 16 20 22 23 23 22 23 20 17 21 37 24 22 25 34 25 32 36 34 30 31 33
23 24 21 18 18 16 15 13 10 7 11 17 18 20 20 20 25 24 24 23 26 31 26 23 24 34 33 35 33 33 34 37
25 29 27 20 21 19 19 18 11 11 13 12 12 16 19 20 23 23 24 24 27 29 28 27 27 29 31 33 36 35 37 39
30 27 25 25 26 22 22 23 18 16 18 17 15 16 16 18 21 23 22 24 25 26 30 30 32 34 35 37 37 38 39 42
30 32 34 33 26 21 23 25 24 22 21 22 20 21 20 17 22 22 24 25 26 28 29 30 30 33 36 36 38 40 40 39

GFSFLT1_700_spd_072.txt.gz
Wind_Speed
7 4 5 6 7 10 12 11 12 20 26 18 19 15 21 22 31 42 43 42 40 36 36 35 32 30 26 21 15 13 11 12
8 7 5 6 5 8 11 8 11 15 18 24 18 27 20 25 34 38 40 45 40 39 40 37 34 29 23 20 18 15 12 13
10 9 7 6 3 4 6 6 12 23 19 19 18 19 22 24 28 40 35 39 40 40 40 39 37 34 36 26 24 19 20 16
13 11 9 7 5 2 2 2 2 15 20 24 22 26 29 27 38 36 40 43 42 44 42 38 38 39 39 30 32 30 20 22
13 12 10 9 7 5 2 3 4 4 11 24 22 26 27 27 33 35 43 42 51 48 43 43 43 40 40 37 40 30 29 25
12 12 12 13 10 8 7 5 5 5 5 7 16 25 30 29 26 35 32 46 50 50 49 45 41 43 43 41 44 37 32 27
14 16 16 16 14 12 10 9 8 7 7 6 8 10 22 30 31 34 31 39 49 49 44 49 48 46 44 38 37 36 30 25
18 19 16 14 13 13 13 11 10 9 7 7 6 5 6 10 21 36 34 31 37 48 45 40 41 44 44 40 39 34 29 28
22 18 18 15 15 15 15 13 12 10 9 8 6 5 6 7 12 23 33 34 31 31 36 36 35 26 38 36 39 42 35 33
21 20 20 20 18 17 16 15 14 13 11 10 9 8 8 7 9 13 18 22 24 28 30 36 35 31 35 38 41 44 41 39
19 22 24 23 22 21 21 20 18 16 16 15 13 12 11 12 13 13 14 14 19 22 22 24 31 35 37 42 44 45 45 42
14 15 23 26 25 24 24 23 20 19 17 16 17 18 18 18 16 16 17 19 18 21 23 26 29 34 37 40 42 44 48 47
9 16 18 24 27 25 24 24 24 23 23 22 21 19 21 23 23 21 21 21 23 25 27 29 30 34 37 41 43 44 46 49
9 12 14 16 23 27 25 24 24 27 27 27 27 27 28 27 26 25 27 30 30 31 35 34 35 39 43 43 46 45 49 51
14 11 16 17 18 20 26 29 23 23 26 27 30 30 28 30 33 33 32 33 36 36 34 32 34 40 45 50 55 52 50 47
20 17 16 17 20 19 24 27 26 26 24 23 23 24 24 25 29 34 37 38 40 40 39 36 34 38 44 51 47 39 41 46
20 22 22 19 18 20 24 27 27 23 24 22 20 23 22 23 24 27 33 37 40 41 45 45 41 37 31 37 38 35 39 38
29 24 22 29 27 25 25 28 30 28 27 28 25 23 21 17 15 18 24 28 33 38 41 43 46 35 27 27 32 39 44 42
32 33 30 26 29 30 34 34 33 32 28 32 32 27 25 24 22 22 21 22 26 32 34 38 38 36 36 40 43 47 48 46

GFSFLT1_700_spd_075.txt.gz
Wind_Speed
9 10 10 12 11 11 12 11 10 18 23 14 17 16 15 16 20 24 28 38 38 38 35 34 34 29 28 27 26 24 19 16
12 10 11 13 11 9 11 12 9 21 24 21 23 22 17 15 24 29 29 36 46 42 37 38 31 33 28 30 28 23 20 16
12 12 11 12 12 9 8 9 6 16 22 23 18 21 20 21 22 32 35 37 39 42 42 43 35 33 33 32 27 24 21 16
15 14 13 12 11 10 7 6 2 7 18 18 26 20 25 29 25 29 33 42 47 50 49 47 41 37 38 33 31 27 24 21
16 15 14 13 12 9 7 4 1 4 8 13 20 18 26 25 27 25 33 39 37 48 49 46 44 44 42 39 39 34 35 30
15 14 14 15 14 11 9 6 3 3 5 6 11 20 24 26 29 27 37 41 34 46 50 47 48 47 45 44 40 40 37 36
18 12 16 17 15 14 12 10 8 6 5 5 6 10 17 29 28 30 36 40 43 44 49 50 49 50 49 47 42 42 46 41
21 21 18 18 14 14 15 13 11 8 6 6 5 6 8 15 27 29 28 41 38 37 49 53 51 49 49 46 48 47 47 45
17 22 21 19 16 16 18 17 15 12 10 9 7 6 6 7 10 20 33 33 36 25 31 40 52 44 48 43 40 43 44 37
14 20 24 22 20 19 19 19 19 17 14 13 11 9 8 7 8 7 12 24 28 32 28 34 37 41 40 38 38 43 43 40
11 16 23 22 23 23 22 23 22 20 18 16 15 14 13 13 13 11 10 11 15 21 25 28 34 36 41 37 40 41 42 42
7 11 19 24 27 28 26 26 26 24 23 22 20 19 17 16 15 14 14 15 16 15 18 22 24 27 36 38 39 38 40 42
8 9 15 19 22 31 30 29 28 26 24 21 20 20 20 20 18 19 19 19 20 22 21 23 24 24 26 33 38 39 43 46
8 13 11 17 18 25 31 29 29 29 28 26 26 25 25 23 23 25 26 25 26 26 27 28 28 28 29 31 33 37 41 44
14 12 15 15 17 18 26 31 29 30 31 30 31 30 30 29 30 31 32 32 32 32 33 33 33 33 35 36 39 41 44 47
20 14 14 15 18 17 20 25 31 34 35 31 29 30 30 32 34 34 35 38 40 38 37 38 39 39 40 39 40 41 47 48
19 25 13 13 16 21 19 19 22 29 34 32 30 30 27 28 29 31 33 36 40 44 44 43 43 45 44 43 40 39 42 46
29 31 32 19 14 22 28 26 26 26 29 33 32 32 30 26 28 31 33 32 33 36 39 42 44 44 44 46 43 43 38 43
32 34 33 30 28 27 26 28 32 30 31 32 34 37 36 33 32 30 28 25 24 23 27 32 36 39 41 42 43 46 44 42

GFSFLT1_700_spd_081.txt.gz
Wind_Speed
19 19 16 12 6 8 10 13 16 18 15 12 17 11 6 12 16 24 32 30 26 23 33 40 43 37 34 30 28 27 26 24
22 20 17 15 9 7 9 11 13 16 13 13 16 17 13 9 13 25 23 29 33 30 35 35 41 35 33 31 29 29 28 26
26 25 18 16 13 9 8 10 11 12 9 12 15 12 13 10 16 27 30 32 31 32 28 31 41 40 37 34 32 30 28 25
31 28 19 17 16 11 9 9 9 10 7 12 18 18 19 16 15 24 26 24 25 29 20 40 39 33 37 32 26 29 28 31
31 27 22 17 16 14 10 8 7 8 7 5 14 17 19 13 13 15 20 23 20 24 21 40 42 40 34 39 30 28 30 31
27 25 24 19 18 15 11 10 7 6 5 3 8 13 15 16 19 18 16 20 20 21 25 39 41 38 37 34 37 40 37 30
34 28 23 23 19 17 12 11 9 6 4 3 4 7 11 15 16 18 18 16 22 19 22 24 41 42 42 39 37 36 41 36
31 29 26 24 18 16 12 11 11 8 6 4 3 4 6 10 11 13 16 21 24 20 15 21 33 42 42 41 37 38 37 40
30 26 25 20 18 16 13 12 12 11 8 7 5 3 3 6 9 11 14 21 21 21 21 19 28 33 40 45 41 41 42 46
23 21 16 13 11 19 15 14 14 13 12 11 9 6 3 3 4 6 8 11 18 20 24 21 21 28 41 39 46 48 51 49
15 11 14 15 13 10 17 16 15 15 15 15 13 11 9 7 7 4 3 4 8 14 19 21 24 29 35 39 44 50 51 51
15 10 13 17 14 13 14 17 19 19 18 19 18 16 14 13 10 10 9 9 9 9 11 15 18 21 29 32 32 39 49 51
16 9 4 8 9 11 13 17 19 22 23 22 22 21 19 17 15 13 14 13 13 14 14 15 16 18 23 28 27 26 33 40
16 13 7 10 7 10 9 9 15 20 29 27 25 25 24 21 20 20 19 18 17 18 19 19 20 21 22 23 27 29 31 31
14 12 5 5 9 21 15 16 15 13 18 29 28 27 27 26 26 26 26 25 24 23 23 24 25 25 26 26 27 29 30 29
10 12 12 9 8 11 22 20 14 15 13 16 30 30 30 30 30 31 31 31 30 30 30 30 30 30 30 31 31 30 31 32
15 16 19 19 14 14 15 18 21 23 21 11 12 21 35 33 34 35 36 35 35 35 36 36 35 35 33 33 34 35 35 35
13 20 17 22 24 21 23 18 21 25 28 23 19 20 21 23 29 36 40 40 41 38 37 36 34 34 33 33 35 37 38 39
18 16 15 15 16 18 25 28 23 21 23 30 33 33 29 26 27 29 30 38 43 41 39 37 37 33 32 34 35 38 40 39

GFSFLT1_700_spd_084.txt.gz
Wind_Speed
25 17 16 16 14 13 13 12 13 12 13 12 12 14 7 11 21 25 30 30 28 37 25 30 34 34 37 35 32 27 27 28
23 22 19 13 14 14 14 13 12 13 12 9 11 16 13 9 18 25 24 26 34 32 31 30 38 39 35 35 34 30 32 31
29 28 25 15 12 13 14 14 11 10 12 6 12 12 14 9 18 24 27 30 30 30 33 27 31 40 42 37 37 37 36 32
32 28 23 17 12 12 14 14 12 8 10 7 12 19 16 15 9 28 31 29 34 29 29 28 34 41 46 39 37 35 33 31
34 30 23 19 14 11 14 14 13 8 6 7 7 12 12 13 7 17 28 25 27 30 25 30 22 36 39 41 38 36 32 30
38 31 22 20 16 12 13 14 13 9 5 5 4 8 12 15 12 16 24 29 29 27 29 31 18 36 38 39 40 29 28 28
37 32 22 20 17 16 13 13 13 9 5 5 4 5 8 12 16 19 21 26 32 30 28 31 24 36 37 39 39 43 32 30
39 34 27 22 19 12 14 13 12 10 6 4 3 4 5 7 10 10 16 20 25 25 29 26 25 28 40 41 39 29 35 34
34 31 29 23 17 15 15 13 11 11 9 6 4 4 3 4 7 10 9 18 26 22 22 19 21 29 33 43 39 38 37 36
31 27 28 20 16 14 16 14 13 12 12 10 7 6 4 3 4 6 8 10 19 23 24 20 22 24 35 38 39 40 41 40
26 21 23 18 10 8 6 11 14 14 13 13 11 10 8 7 6 5 5 8 11 17 20 24 28 25 24 33 37 44 45 52
24 24 17 13 8 8 7 6 11 16 16 15 15 13 12 11 10 9 7 8 9 9 10 14 18 23 30 31 32 35 42 43
27 21 20 17 11 8 6 4 6 11 16 19 19 18 17 16 14 13 13 12 11 11 11 12 14 17 22 27 29 30 34 35
25 24 25 22 19 15 12 7 4 1 7 14 21 24 23 21 19 18 18 18 18 18 18 17 16 17 20 23 26 28 31 33
21 21 21 21 21 20 19 17 13 6 4 3 8 20 27 27 26 24 23 22 23 23 24 25 25 25 25 26 27 29 30 31
16 14 15 14 10 8 9 16 20 18 13 13 7 2 11 22 29 31 31 30 29 29 30 30 31 31 30 30 30 30 32 33
6 6 4 6 8 12 15 16 16 15 20 25 22 19 14 13 15 22 31 33 34 35 36 36 37 36 35 34 34 35 36 36
8 9 13 15 13 16 16 19 23 25 26 24 25 29 29 26 24 23 25 30 30 35 38 41 40 39 38 39 39 41 41 40
1 3 5 7 10 11 11 14 17 21 22 24 27 25 26 30 34 33 28 29 29 28 30 36 43 43 40 40 40 43 44 43

GFSFLT1_700_spd_087.txt.gz
Wind_Speed
22 24 21 14 15 16 16 15 17 16 16 18 16 11 10 6 13 20 24 31 37 31 34 28 30 26 34 36 36 32 30 27
21 20 20 18 17 12 14 14 16 16 14 17 15 9 11 8 10 27 27 27 35 33 31 30 32 32 33 35 36 32 32 31
24 23 22 18 20 16 15 13 16 16 13 14 12 11 12 10 9 15 30 33 31 31 31 33 31 34 34 34 36 36 34 32
26 26 26 20 22 16 14 12 15 15 12 12 9 13 11 13 10 19 24 28 29 28 33 31 32 37 36 36 36 36 34 35
33 30 29 23 20 21 14 12 14 14 11 10 7 6 10 8 8 10 30 26 27 30 34 26 32 29 31 40 42 35 37 35
27 31 28 27 23 23 14 12 13 13 9 7 5 5 10 11 12 8 26 30 30 29 34 31 32 31 28 39 43 43 37 38
30 30 28 29 28 25 20 13 12 13 9 5 4 4 8 11 11 9 14 35 35 32 24 26 25 28 21 33 36 36 36 35
26 29 34 32 27 28 22 14 11 13 10 5 3 3 4 7 10 11 14 20 27 30 28 29 27 30 20 31 35 38 39 35
31 27 29 32 28 29 17 11 11 12 11 7 4 3 3 5 7 10 12 12 22 27 29 29 25 22 27 30 43 38 41 43
33 32 26 29 27 25 14 12 12 12 11 10 7 5 3 4 5 6 9 12 18 17 21 24 24 23 29 26 36 36 42 44
31 29 27 25 23 19 14 13 14 14 12 12 11 8 7 6 5 5 5 9 16 26 29 27 28 21 24 25 31 36 40 41
28 28 28 25 23 19 15 10 8 11 14 13 13 13 11 10 8 7 7 8 9 10 17 29 32 32 30 28 30 30 36 39
28 32 28 30 23 20 17 15 13 9 13 15 16 16 16 15 13 11 11 10 10 10 12 13 16 22 26 29 33 34 35 35
26 29 34 32 29 26 23 19 17 14 12 12 14 18 19 19 19 18 17 15 15 15 15 16 17 19 20 22 25 29 32 34
24 35 35 34 31 26 23 22 19 18 15 16 16 16 20 21 24 25 23 22 22 21 22 22 22 22 24 25 27 28 29 31
18 22 30 30 28 24 23 20 20 18 14 14 13 13 14 19 27 28 28 28 28 28 28 28 29 29 30 30 31 31 32 34
11 13 17 14 14 12 11 11 11 10 12 16 19 18 16 21 19 22 25 29 32 33 33 32 34 35 35 36 36 38 38 39
7 6 9 4 4 5 10 12 15 18 18 20 22 22 25 30 28 27 22 22 26 27 27 26 29 31 35 38 39 42 44 45
7 5 5 3 5 7 10 11 13 15 18 21 22 21 24 26 26 28 29 33 30 30 30 30 30 31 28 28 29 35 42 45

GFSFLT1_700_spd_090.txt.gz
Wind_Speed
32 29 26 25 24 14 16 17 15 17 18 18 20 22 17 13 9 11 9 21 37 36 34 32 29 30 32 30 29 26 24 24
30 28 23 20 20 17 12 15 15 15 17 19 20 19 13 11 6 10 14 31 29 32 35 33 32 30 27 28 29 30 31 31
31 27 23 19 19 20 18 14 16 15 16 18 20 17 12 11 6 11 21 21 27 32 36 36 36 34 32 34 34 34 33 30
32 29 26 20 18 18 19 14 16 14 14 16 17 15 11 8 6 8 14 27 18 37 28 33 26 32 36 34 34 34 32 32
32 32 29 19 15 18 21 18 16 14 12 14 15 12 8 8 6 6 13 29 30 24 32 31 29 35 36 35 33 32 32 33
33 32 31 26 22 18 20 20 16 14 11 12 12 10 8 13 11 8 9 22 22 24 25 32 30 28 24 34 34 38 34 34
34 34 34 33 32 25 23 23 18 13 11 11 10 9 6 10 9 9 6 21 22 22 29 26 27 28 24 19 20 34 39 36
34 37 34 30 24 25 26 24 19 14 12 10 8 7 6 8 9 9 8 9 18 27 24 26 26 30 18 27 18 20 33 44
37 36 34 31 30 27 26 25 18 16 12 10 8 6 5 6 7 8 8 10 12 22 25 26 26 22 22 21 18 18 28 29
36 35 33 31 24 24 26 23 18 15 13 12 10 7 5 5 6 7 9 10 13 17 21 24 21 21 22 22 22 22 27 33
32 31 31 28 23 23 26 25 19 16 16 13 14 11 9 7 5 5 6 8 11 16 20 23 23 25 22 21 24 27 26 34
31 29 33 33 26 27 28 25 23 21 20 18 16 15 12 11 8 8 7 8 8 13 21 22 23 26 25 25 25 25 27 30
27 34 35 34 29 30 30 27 23 19 19 21 19 18 17 15 13 11 10 9 9 10 12 16 22 30 31 32 30 28 31 34
20 26 32 35 32 34 32 31 27 23 18 20 22 21 21 20 18 16 15 15 14 14 14 14 15 16 21 24 29 30 30 28
9 14 26 28 36 35 36 34 29 28 25 22 21 20 20 21 22 21 21 20 20 19 18 19 19 20 21 22 24 27 28 28
10 12 19 25 33 34 32 29 25 24 20 16 15 14 15 15 17 19 21 23 24 24 24 24 24 24 24 25 26 28 31 32
22 22 19 18 27 23 22 22 18 17 18 20 22 26 26 24 19 14 23 20 17 24 28 29 29 29 29 31 32 34 35 36
22 21 18 18 22 15 13 13 14 14 16 17 19 22 23 24 24 23 27 33 37 27 25 24 26 25 27 30 31 34 37 39
7 14 15 17 8 5 1 3 6 11 12 15 17 18 19 21 22 22 24 27 31 32 30 28 30 29 31 31 31 32 38 40

GFSFLT1_700_spd_093.txt.gz
Wind_Speed
32 34 35 33 27 26 19 17 19 18 17 16 16 17 18 21 18 15 18 24 20 26 33 29 36 36 34 33 31 28 27 27
30 31 35 33 31 29 23 17 15 16 16 16 16 16 17 19 14 13 15 19 14 24 29 33 30 37 33 30 28 29 30 30
30 32 32 31 31 29 27 20 13 14 15 16 15 15 15 15 13 12 13 15 19 23 34 39 35 36 34 31 28 30 29 27
30 32 30 32 31 27 27 23 18 14 14 15 14 13 13 10 10 6 16 12 29 26 33 34 35 33 28 33 33 31 30 32
33 33 30 33 31 28 27 25 21 15 14 14 14 11 11 10 11 10 10 23 24 30 27 36 37 34 31 30 29 29 32 32
37 35 30 34 34 30 27 24 23 18 13 13 14 10 10 12 15 12 8 14 27 22 34 34 30 32 28 27 34 35 32 33
37 37 36 31 36 32 25 24 23 19 14 13 13 10 9 10 14 13 10 9 24 28 31 31 26 29 26 25 31 27 29 35
32 41 37 34 35 36 30 27 25 21 14 13 13 10 9 8 12 13 12 9 21 24 27 30 24 28 23 19 23 17 17 19
25 37 38 34 35 35 32 30 28 24 16 14 13 11 9 8 9 12 12 11 20 25 22 25 27 28 17 24 17 18 16 14
21 31 39 33 30 32 27 28 29 25 18 16 14 13 10 8 8 10 10 10 14 21 21 15 16 22 17 18 20 16 17 13
20 31 36 34 32 32 32 34 29 26 20 18 16 16 13 11 9 8 9 9 10 11 18 19 22 20 20 21 27 19 20 21
16 26 32 35 34 31 31 37 33 29 23 21 19 19 17 14 12 11 10 10 9 8 11 18 19 21 23 23 22 21 18 21
13 25 30 33 34 32 31 37 35 32 25 23 23 22 21 19 16 14 12 11 10 11 13 15 17 19 22 25 23 20 21 23
11 19 30 28 32 29 32 38 35 32 28 27 26 26 25 23 21 19 17 15 13 12 12 12 14 19 22 25 26 26 26 28
13 10 16 20 38 32 36 40 38 35 32 30 28 28 27 25 24 22 20 18 17 15 15 14 14 15 16 17 19 22 25 27
16 8 17 32 25 23 36 41 42 38 34 28 22 23 22 21 20 20 19 19 18 17 17 18 19 19 20 20 21 23 25 26
27 30 24 23 17 15 24 35 37 32 27 24 27 19 15 13 11 11 14 17 17 18 16 16 20 22 24 26 27 27 29 30
22 27 26 27 27 24 22 24 27 27 26 23 27 32 26 23 24 26 26 26 26 27 27 27 23 26 26 28 29 31 32 33
8 12 21 21 19 18 18 18 24 26 14 9 24 30 29 24 22 26 28 27 27 26 27 29 28 31 32 30 27 26 29 30

GFSFLT1_700_spd_096.txt.gz
Wind_Speed
27 36 38 39 38 32 27 28 22 21 21 20 18 17 17 17 21 22 20 18 26 33 34 35 41 30 36 33 34 35 32 32
28 31 39 44 40 39 33 31 25 21 19 19 18 17 18 17 21 18 15 19 25 30 30 31 34 28 39 35 44 39 36 35
30 31 35 40 42 41 36 33 27 21 18 18 19 18 17 17 20 15 15 19 19 20 27 27 41 33 37 39 41 38 38 36
37 36 34 38 40 37 34 34 27 23 18 18 18 17 15 15 16 13 12 16 15 19 18 26 31 30 37 37 37 38 36 36
37 39 39 35 38 37 34 34 31 28 23 19 16 16 15 14 16 14 11 12 13 16 21 26 27 36 36 33 34 33 31 31
31 37 40 37 39 37 36 32 34 32 28 20 17 15 15 14 17 14 11 14 19 15 23 31 34 37 35 34 34 34 31 32
16 30 38 41 41 38 38 33 34 34 30 22 17 15 15 11 15 13 12 13 18 24 29 26 32 34 35 33 32 33 37 39
15 20 33 39 40 37 38 36 34 34 31 24 18 16 15 9 14 13 13 16 16 31 30 24 37 36 35 33 29 27 33 31
19 17 28 37 40 38 37 37 33 32 31 25 19 18 16 9 13 13 13 14 13 25 28 24 28 30 21 26 25 22 21 20
17 16 23 34 39 37 38 40 36 31 31 27 20 18 17 11 12 13 14 14 14 23 28 24 36 31 26 24 22 25 18 24
16 14 18 29 37 40 39 39 36 34 32 30 22 20 18 15 11 13 14 14 15 19 26 24 29 23 31 23 19 27 22 22
11 13 18 28 36 40 39 40 36 36 34 32 25 23 21 18 14 15 13 13 13 17 22 29 26 22 25 26 26 23 29 20
12 11 18 29 34 36 39 41 39 37 37 34 28 25 23 22 18 17 15 13 12 12 12 16 26 25 29 27 25 24 23 21
15 10 16 21 32 35 36 35 34 39 41 37 30 27 26 26 22 21 18 16 14 13 11 11 11 14 17 18 21 23 22 21
14 12 9 18 26 33 34 32 32 39 41 39 33 28 29 28 26 25 23 20 18 15 14 13 12 13 15 18 19 21 22 22
11 17 15 15 21 21 21 30 33 40 41 40 34 30 31 30 29 27 26 24 22 20 18 17 17 19 21 20 20 21 21 21
20 17 21 18 20 17 22 23 26 35 41 39 36 31 29 29 29 29 28 26 25 24 23 22 22 25 22 22 23 24 25 25
4 14 23 27 23 20 25 39 24 29 30 34 31 29 27 24 25 24 23 24 26 26 23 25 27 28 26 26 26 26 28 28
12 8 10 22 28 30 29 29 30 28 28 27 28 31 36 37 30 24 22 22 22 26 26 28 28 29 28 26 25 26 27 28

GFSFLT1_700_spd_099.txt.gz
Wind_Speed
23 27 29 28 28 29 34 34 31 28 27 26 25 23 20 21 22 24 23 24 26 30 31 32 31 33 33 31 32 31 38 31
21 22 24 28 36 34 40 38 35 28 29 27 24 22 22 23 24 25 24 22 20 23 26 31 34 38 35 36 27 38 39 33
25 26 26 28 31 41 45 42 40 35 31 27 23 24 25 24 25 25 23 20 21 26 30 32 38 34 41 36 34 40 40 35
25 27 29 29 30 43 42 43 41 41 32 30 25 24 25 24 25 24 21 19 21 24 26 24 32 33 34 35 38 38 39 39
19 24 32 30 32 37 42 42 40 34 32 32 24 22 22 24 25 23 20 20 21 21 22 24 30 37 37 31 36 38 43 43
15 17 20 33 32 32 44 42 40 32 32 34 26 24 22 23 24 22 18 18 19 16 16 18 22 26 29 35 38 34 43 37
13 17 22 29 36 35 43 41 42 34 35 37 30 27 24 23 23 21 16 17 18 14 16 17 28 22 30 35 39 36 34 36
16 25 28 31 28 31 41 43 39 35 35 39 35 30 25 22 21 21 15 15 17 14 16 15 20 19 29 34 34 36 37 33
19 24 30 29 32 29 39 43 38 37 37 41 37 31 26 22 20 20 14 13 16 15 14 21 23 29 33 37 35 32 32 36
19 20 24 26 33 33 37 41 39 38 39 42 37 31 26 23 19 19 16 13 15 16 15 24 24 20 35 34 35 30 31 30
20 16 20 22 28 30 37 39 39 38 40 40 36 32 26 23 21 19 16 13 14 17 18 21 26 26 25 28 20 20 24 21
20 10 14 18 29 18 36 38 39 38 39 39 38 34 29 24 21 20 17 14 14 15 17 21 24 23 31 32 30 19 24 25
21 12 8 16 26 23 31 36 38 37 40 41 39 36 30 25 23 22 18 15 13 13 14 20 24 25 28 33 32 25 21 27
25 13 8 15 23 28 28 28 34 36 39 40 40 38 33 27 26 24 20 18 16 15 14 14 18 26 26 24 24 26 24 22
28 11 12 16 17 18 21 21 25 29 34 39 42 40 35 31 28 27 24 21 20 18 16 15 16 21 22 21 25 27 26 25
23 15 11 16 16 15 16 19 21 27 33 39 43 42 36 33 31 30 28 25 24 22 21 22 22 24 23 23 23 23 24 25
15 17 11 11 17 18 19 23 25 26 28 32 40 45 41 38 34 33 32 32 30 29 27 27 27 23 21 20 20 20 21 23
14 12 10 16 11 19 20 22 26 28 29 30 36 41 39 36 34 34 33 32 32 31 30 30 29 25 24 23 23 24 26 28
17 18 15 11 16 16 17 24 28 28 23 26 32 33 33 33 34 36 34 33 32 33 32 31 29 26 25 27 27 26 27 28

GFSFLT1_700_spd_105.txt.gz
Wind_Speed
32 33 32 32 29 33 33 29 29 30 31 28 29 25 25 23 22 20 19 20 21 21 20 20 24 29 27 29 29 30 28 23
27 30 29 28 29 34 34 37 33 33 34 34 31 29 26 25 23 22 23 21 22 22 22 22 25 29 27 30 29 30 27 27
26 26 28 29 29 35 37 36 37 36 35 36 33 34 30 27 27 25 26 24 22 24 23 22 24 26 26 28 30 32 31 33
27 31 29 29 30 35 36 35 34 38 41 41 38 37 35 31 28 29 28 25 24 24 23 24 24 25 25 27 31 34 37 35
32 32 32 34 39 43 37 34 33 34 40 43 38 32 37 32 29 27 27 26 25 24 24 24 25 24 27 30 32 36 39 34
37 41 42 42 41 44 44 41 32 30 34 39 37 30 34 35 32 29 27 25 23 24 23 24 24 26 28 30 35 41 41 41
37 41 40 44 44 43 44 46 45 44 33 41 41 34 30 32 30 29 28 22 22 23 23 23 24 26 28 29 33 31 36 42
33 34 38 40 42 43 46 49 46 49 49 39 41 38 30 29 28 30 27 23 21 22 22 22 24 26 25 28 24 30 35 43
25 25 31 40 43 47 53 58 59 57 54 52 45 38 32 31 30 32 29 26 22 22 21 20 21 26 19 20 24 25 34 33
21 26 32 33 32 31 33 35 40 43 52 51 46 38 33 34 32 33 33 27 22 22 21 19 19 22 14 18 26 30 31 34
22 27 30 27 27 28 31 32 30 38 31 41 42 35 34 36 36 32 33 27 23 21 20 19 18 19 15 16 22 25 24 29
12 13 18 21 22 19 23 28 29 40 36 39 36 34 34 37 38 32 32 29 24 21 19 18 17 16 17 14 19 22 20 28
8 9 9 17 14 12 16 21 25 35 36 30 33 35 35 39 38 34 32 30 25 21 19 18 16 16 18 12 15 19 28 31
10 10 11 8 12 13 18 17 23 26 27 29 30 39 35 39 35 39 34 31 26 22 20 18 16 15 17 16 14 21 28 27
13 11 13 5 10 19 15 16 22 17 19 24 26 23 26 33 39 42 35 30 27 24 22 18 16 14 17 20 21 22 26 27
19 16 14 15 5 14 16 18 17 19 24 25 22 24 33 34 38 39 34 33 30 26 25 21 20 19 19 22 21 26 22 29
24 26 24 16 15 6 10 18 24 24 24 18 24 27 43 34 38 40 38 36 31 29 30 25 22 21 19 19 25 27 29 27
21 23 25 27 25 19 12 10 13 20 22 21 25 26 32 38 43 37 42 40 33 30 30 29 26 25 24 22 24 27 29 28
17 19 20 21 25 24 19 14 13 9 14 26 25 29 32 35 36 36 37 39 35 28 28 30 27 28 27 28 28 29 29 30

GFSFLT1_700_spd_108.txt.gz
Wind_Speed
37 36 36 36 33 33 30 33 31 30 28 27 24 24 26 26 22 20 19 18 18 18 18 17 18 20 20 22 24 25 24 24
40 36 36 45 44 42 37 34 37 34 32 31 30 26 24 28 26 24 22 21 21 20 21 20 20 21 21 22 23 25 26 27
33 29 36 32 35 38 40 37 37 36 36 33 30 28 28 27 31 29 26 23 24 23 21 22 22 23 23 22 22 25 30 30
40 42 42 43 43 43 42 39 38 33 33 35 35 30 33 34 33 33 30 25 25 24 22 23 23 25 24 22 22 25 31 33
34 38 40 43 45 40 43 43 35 31 32 35 36 33 32 33 34 33 32 29 26 25 24 23 25 26 25 22 23 26 29 34
36 38 38 39 42 40 38 43 42 41 38 35 31 32 28 30 31 33 33 31 28 26 23 24 25 26 25 23 25 29 32 35
42 35 36 37 39 40 41 40 41 44 44 43 43 33 29 31 28 28 34 33 30 27 23 24 24 26 24 23 23 30 35 36
36 41 35 35 38 38 38 36 35 40 44 44 46 41 33 32 31 30 31 33 31 27 24 24 24 25 23 22 25 31 32 41
35 30 30 32 34 36 40 44 42 37 37 41 46 48 46 35 35 32 32 32 30 29 27 25 24 25 23 22 25 28 30 34
27 34 33 35 38 41 46 50 51 50 48 48 44 47 48 46 40 40 33 33 32 31 29 26 24 24 21 21 19 19 25 22
27 27 32 36 41 46 48 52 54 58 61 58 55 53 47 44 46 42 33 34 33 34 30 26 24 23 21 18 16 14 20 29
14 19 22 26 30 35 37 38 39 42 42 39 44 38 38 37 36 35 33 33 32 35 32 26 24 22 20 17 17 15 21 26
4 9 15 20 22 25 29 23 23 25 28 33 38 35 34 34 34 31 33 35 31 36 32 26 24 21 20 16 16 16 23 23
1 3 6 11 14 16 14 11 22 15 20 30 38 34 31 32 32 31 33 37 34 35 31 26 24 20 20 17 19 16 16 23
12 7 8 8 5 12 18 15 25 15 16 20 27 36 38 30 30 36 35 36 35 38 30 28 25 21 21 19 19 17 16 17
23 24 21 14 10 6 15 21 20 17 22 18 17 27 27 27 20 28 33 39 35 38 32 31 27 25 24 19 22 20 24 23
23 23 23 24 24 16 4 12 21 18 15 19 18 21 24 27 28 35 34 39 41 40 37 32 28 26 24 21 21 23 27 22
19 20 21 22 24 27 23 13 6 11 19 23 26 19 19 24 28 35 38 28 38 38 40 34 30 28 26 25 25 26 26 30
15 16 18 20 20 21 24 27 20 15 10 14 20 22 21 33 32 37 31 36 39 39 39 34 33 30 29 28 27 27 33 29

GFSFLT1_700_spd_111.txt.gz
Wind_Speed
36 31 26 27 27 27 29 31 26 20 24 27 27 25 24 24 25 22 20 18 16 17 15 15 15 15 16 17 19 21 24 25
30 35 33 30 30 33 34 35 31 29 30 31 30 27 23 21 23 24 24 22 20 20 20 18 17 17 16 18 20 22 23 25
40 37 40 39 42 40 39 39 38 34 30 32 32 32 28 27 24 23 23 25 25 24 24 22 20 19 19 20 21 22 24 25
36 39 41 46 45 43 42 41 41 41 34 37 37 33 32 31 29 29 24 25 27 28 27 26 23 22 21 22 22 23 24 25
39 36 44 48 46 47 44 42 42 45 43 41 38 38 34 30 31 26 25 29 30 29 30 28 26 25 24 24 24 25 25 27
37 37 32 49 53 53 52 44 43 44 45 43 40 39 35 32 32 25 26 28 30 30 31 31 29 27 26 26 26 27 28 30
31 29 34 45 47 45 48 47 46 45 45 42 40 41 37 32 35 31 28 27 26 30 31 32 30 27 27 26 28 29 30 31
31 33 35 38 42 42 42 43 42 43 44 44 40 40 38 39 34 34 29 29 28 28 33 34 32 28 28 28 29 30 31 33
32 32 32 35 33 31 34 36 39 40 41 43 43 40 41 40 40 38 33 30 27 30 32 34 32 31 29 28 28 30 31 33
32 31 26 28 27 27 28 29 31 33 34 38 39 40 40 41 41 42 40 39 38 31 33 35 34 33 31 28 28 30 30 26
26 29 29 31 32 30 32 32 34 38 39 40 40 40 41 41 41 42 45 43 38 37 39 38 36 34 31 28 28 28 28 22
25 21 22 23 34 40 41 42 45 46 47 52 50 48 49 50 51 46 46 42 41 39 38 37 36 36 32 29 27 27 27 23
14 15 21 18 27 34 40 43 44 45 46 48 52 51 46 45 38 40 40 36 36 34 36 34 36 36 33 30 27 26 25 23
9 5 5 10 18 22 25 28 29 26 29 26 19 23 29 33 33 31 33 35 35 34 36 33 36 36 33 29 27 26 25 22
22 15 8 6 5 7 11 13 17 15 14 16 20 21 24 30 28 28 31 32 36 36 37 38 35 36 35 30 29 25 25 22
23 21 22 18 14 9 6 10 17 16 11 15 18 20 20 24 29 34 33 33 36 38 35 40 36 37 34 32 30 26 24 23
23 22 22 21 24 21 12 6 8 18 18 20 23 22 21 19 28 33 29 36 41 39 42 34 35 37 35 33 31 27 25 22
19 18 19 21 21 23 24 19 13 7 9 18 16 20 20 23 23 27 25 32 35 39 31 32 35 38 33 36 33 29 27 28
17 18 19 18 20 20 21 23 24 22 17 14 8 14 22 24 22 22 25 26 43 41 39 33 39 36 32 36 35 33 28 32

GFSFLT1_700_spd_114.txt.gz
Wind_Speed
44 38 33 35 43 43 38 37 31 23 19 21 26 28 25 23 20 19 19 18 15 13 12 12 13 14 14 14 15 18 19 20
37 38 38 30 42 44 42 41 34 28 24 22 24 28 31 26 22 20 21 21 19 17 14 16 16 15 16 16 17 18 19 21
31 35 34 40 35 37 43 45 37 31 27 26 28 28 29 25 24 22 19 16 20 21 19 19 20 19 19 19 19 19 20 21
35 27 39 39 43 38 41 40 38 35 34 34 34 33 34 32 28 28 24 21 20 19 18 21 24 24 22 22 21 21 21 22
34 37 32 39 41 43 43 42 42 40 39 40 38 37 36 32 30 31 29 27 23 22 22 23 27 27 26 25 24 23 24 25
24 36 35 42 38 39 43 43 43 40 39 42 41 43 38 35 33 33 33 31 27 25 25 25 28 28 28 28 27 26 26 27
23 28 37 34 44 42 40 37 44 43 40 40 43 42 43 38 36 37 34 33 32 29 27 24 27 29 30 29 29 28 29 29
25 26 29 31 33 39 45 50 50 49 50 46 40 38 39 38 38 37 37 37 38 34 28 28 25 30 29 30 31 30 30 31
26 28 29 31 32 35 39 42 49 48 38 40 40 36 37 37 37 37 40 34 33 34 30 28 25 28 32 32 33 33 31 32
29 28 28 28 27 27 27 28 30 31 35 38 39 40 40 40 38 39 37 39 38 36 33 34 32 28 30 32 35 33 32 33
26 26 24 26 27 26 24 23 22 23 26 30 32 33 37 39 40 41 40 40 41 41 39 37 37 36 34 35 36 35 33 33
25 26 26 20 21 24 26 25 25 25 25 27 28 30 32 34 37 38 37 38 39 40 40 43 42 42 42 37 38 37 34 33
24 23 26 22 22 16 25 29 36 38 36 34 39 40 41 43 45 45 44 46 47 44 45 47 45 44 36 36 38 39 35 33
17 10 7 5 10 13 20 25 31 34 38 45 45 46 48 46 47 46 40 43 46 47 47 45 42 39 34 38 37 41 37 33
16 14 8 3 4 7 16 17 21 22 25 27 26 23 19 25 26 30 34 32 35 40 42 40 38 35 38 41 43 42 38 32
28 26 26 22 13 8 4 3 5 12 12 16 17 20 19 27 19 25 25 29 31 34 37 39 37 37 41 46 39 40 37 33
24 24 22 22 25 24 20 14 9 1 12 15 16 16 22 17 20 25 24 28 30 33 35 38 39 42 48 39 38 39 36 32
21 21 21 21 20 21 22 25 25 21 17 10 9 15 16 23 24 22 27 25 31 36 31 40 39 43 43 38 31 37 33 32
19 19 20 22 22 20 20 20 21 23 23 20 14 9 6 12 23 22 22 23 22 27 27 29 31 35 32 34 27 32 32 33

GFSFLT1_700_spd_117.txt.gz
Wind_Speed
61 48 46 51 48 50 55 58 49 44 38 33 33 25 30 32 26 21 20 19 19 16 13 12 12 12 12 13 14 15 16 19
53 54 46 49 52 49 58 59 57 50 42 36 33 27 29 31 28 22 21 21 21 20 17 15 14 13 14 15 17 18 18 19
41 50 46 47 54 50 55 60 57 52 44 38 35 28 28 29 27 26 22 21 22 22 21 19 17 17 17 17 18 19 20 20
43 38 42 43 53 50 49 56 57 55 47 41 36 34 33 32 30 27 24 22 20 19 21 22 21 20 20 20 21 22 22 22
30 32 36 41 47 47 41 49 52 52 49 43 41 37 34 30 30 29 27 28 26 24 22 20 21 21 23 25 25 25 25 25
27 28 31 32 38 35 38 37 48 51 49 46 44 40 38 34 32 34 34 33 31 30 26 25 25 24 25 29 30 28 27 27
23 26 27 31 34 29 34 37 38 44 45 44 42 38 36 36 34 36 37 35 33 34 30 30 29 28 24 28 31 31 29 29
21 23 23 24 26 29 27 31 36 41 41 41 41 40 38 40 36 40 38 38 37 35 34 35 33 30 27 26 30 30 30 30
16 19 22 21 23 25 23 30 31 31 34 37 39 37 35 33 35 36 40 41 37 36 31 39 38 34 29 23 25 31 32 32
15 16 17 20 22 25 28 33 34 36 37 40 41 43 42 39 38 35 36 37 38 36 37 37 40 37 32 29 29 27 31 33
17 18 17 16 18 21 22 23 26 29 34 37 38 34 33 36 35 37 36 36 35 38 38 39 40 39 38 36 35 33 33 34
24 19 18 18 18 19 20 20 22 24 25 27 27 27 32 33 36 40 42 39 38 40 41 40 44 44 42 42 40 38 39 38
22 20 17 16 18 18 22 22 21 21 20 21 20 20 22 23 26 30 33 36 39 41 43 44 44 47 46 46 43 44 41 37
24 19 15 11 11 15 16 20 18 22 27 28 31 32 32 34 33 34 36 38 42 45 47 47 48 47 49 49 46 44 41 38
26 22 13 12 9 10 7 8 14 18 24 31 33 35 39 41 43 44 42 43 44 46 50 50 51 49 52 52 48 44 39 41
28 28 24 22 19 12 4 6 1 7 18 16 14 16 20 25 27 32 26 28 32 34 37 41 42 46 50 50 46 42 38 46
23 23 24 26 27 25 19 16 12 10 3 9 12 14 13 16 21 20 28 26 24 35 35 38 40 40 41 41 41 42 37 40
21 23 24 23 22 23 22 23 23 20 17 13 6 11 18 21 19 21 23 23 28 25 32 34 37 39 38 40 42 41 48 33
20 22 23 23 22 21 22 20 18 17 17 18 16 11 6 3 9 15 20 24 25 27 30 29 37 39 38 31 42 40 36 37

GFSFLT1_700_spd_120.txt.gz
Wind_Speed
37 48 43 43 54 56 53 51 50 60 56 51 44 40 35 34 33 31 26 23 22 21 18 17 16 14 13 12 12 13 13 15
35 37 43 42 56 59 54 51 50 57 62 58 49 43 37 37 35 35 31 27 25 23 21 19 19 17 15 14 14 16 15 17
29 29 34 44 50 61 58 55 52 53 62 57 49 42 38 36 33 36 33 29 28 25 23 22 22 20 19 18 16 16 17 18
32 34 38 50 42 56 56 57 55 53 60 58 53 46 40 40 33 36 34 29 27 25 25 27 26 24 23 21 20 20 21 21
35 33 32 40 39 53 51 57 58 52 54 62 57 48 43 40 33 33 33 31 28 26 25 25 27 27 26 23 24 25 26 26
23 28 29 28 36 48 45 51 54 50 52 60 59 51 43 41 36 36 34 32 31 30 29 28 26 26 26 26 27 28 30 32
19 23 24 26 25 30 36 40 47 46 52 57 62 71 43 42 38 37 35 33 34 35 33 33 31 31 29 29 26 27 31 34
13 13 16 20 21 21 33 39 41 46 50 57 63 54 44 42 38 34 33 35 35 39 35 35 35 33 32 30 30 29 29 31
9 10 11 14 18 15 24 30 36 40 47 52 48 42 45 42 36 36 39 36 37 39 39 39 34 36 33 32 34 33 28 25
3 7 8 14 18 16 19 21 31 30 30 38 44 39 38 37 37 38 41 41 42 43 43 41 38 39 32 36 40 39 32 27
8 15 11 11 17 19 18 18 16 25 26 32 26 33 35 37 36 37 39 38 41 40 44 41 38 39 38 40 42 38 37 33
17 13 13 11 12 15 22 16 17 18 19 20 22 26 31 37 39 36 37 39 41 39 38 39 41 40 42 42 39 42 40 35
19 18 15 11 11 9 12 15 17 17 23 27 29 32 33 27 33 36 38 39 38 38 37 38 38 42 40 43 43 42 44 46
15 18 20 16 13 11 9 10 13 18 21 24 25 24 24 21 22 23 26 29 33 38 44 45 48 49 44 44 49 47 41 52
20 20 19 15 15 14 13 10 9 10 11 15 18 21 22 24 27 29 29 31 32 35 38 43 47 49 51 53 54 53 53 55
24 26 25 24 20 15 8 5 6 15 18 18 19 22 24 28 30 31 33 32 34 36 37 39 43 48 51 53 50 51 51 54
21 21 23 24 29 28 24 18 9 8 3 3 11 18 21 19 21 22 22 23 27 27 29 31 34 34 34 31 31 39 43 46
20 23 23 23 23 23 20 23 22 18 16 13 9 3 12 19 17 14 19 20 23 26 27 31 32 36 34 36 37 39 40 42
17 19 21 22 22 21 23 21 17 15 14 14 15 13 10 5 6 12 17 19 19 22 27 32 34 31 35 36 39 40 42 40

GFSFLT1_700_spd_123.txt.gz
Wind_Speed
27 27 32 33 33 35 37 47 46 45 53 58 59 56 50 43 39 36 33 29 27 25 22 20 18 16 15 16 14 16 15 14
35 32 26 29 32 35 37 39 40 50 50 53 62 62 55 46 43 41 36 33 30 28 26 23 21 18 16 15 15 16 15 15
40 38 34 28 32 36 37 46 53 54 47 49 60 64 57 48 46 44 40 37 35 32 29 26 23 21 20 18 17 17 16 17
39 32 35 43 45 50 53 54 58 54 44 41 54 63 60 55 51 49 42 38 41 36 31 29 26 25 23 21 21 19 20 20
33 29 31 33 39 44 44 46 52 49 55 49 54 61 66 63 53 46 42 41 42 39 34 31 28 28 27 24 24 22 24 23
30 29 30 29 33 37 37 37 48 54 51 54 54 56 65 62 52 48 45 41 41 40 34 31 29 30 29 28 27 26 25 26
32 31 31 30 32 35 33 33 44 51 51 52 57 54 56 60 56 52 45 40 40 38 34 31 29 28 27 27 27 27 27 26
35 30 32 29 25 28 29 28 31 46 54 56 50 52 53 56 59 52 45 38 37 34 35 34 33 31 31 30 31 30 29 28
30 31 25 15 17 21 25 25 25 37 48 55 54 50 55 60 68 27 44 40 39 32 31 30 33 32 32 33 34 33 32 31
26 18 8 4 8 15 21 25 23 32 40 48 49 50 52 65 43 53 39 32 35 38 34 38 38 37 35 34 38 40 36 32
22 11 7 6 5 16 21 22 33 24 39 40 38 44 50 61 39 43 35 40 36 37 40 41 40 39 39 39 41 44 45 36
23 16 17 12 11 19 14 13 20 27 21 20 32 28 34 36 32 38 33 40 42 41 38 34 37 41 42 42 42 42 46 41
21 18 18 17 10 9 8 13 16 19 15 13 15 17 22 12 31 33 42 44 43 38 35 37 39 38 40 43 42 41 43 41
19 19 19 17 16 13 15 10 5 13 16 15 14 18 18 15 13 18 23 27 30 32 36 38 37 35 37 40 41 42 42 46
23 24 25 20 18 15 17 18 9 2 4 4 7 7 7 13 18 17 21 23 25 26 28 34 37 40 42 44 48 51 54 49
25 26 26 28 27 22 16 7 6 3 1 7 7 11 10 12 18 20 22 24 25 26 28 29 30 35 41 46 48 50 52 55
24 29 28 26 30 30 28 22 19 14 8 2 9 12 13 15 19 22 23 23 24 25 28 31 34 36 36 39 41 43 47 51
20 22 22 24 24 27 27 25 24 22 20 19 15 5 4 8 9 11 10 12 18 18 22 24 27 30 32 32 31 32 34 39
18 19 20 22 23 24 25 24 23 22 21 19 15 16 15 14 13 8 7 11 15 20 21 22 25 28 29 32 35 36 36 40

GFSFLT1_700_spd_129.txt.gz
Wind_Speed
36 40 47 45 50 49 50 50 48 47 43 49 52 48 50 45 40 48 51 45 39 37 32 31 30 27 26 24 23 23 22 21
40 47 53 55 61 51 49 50 53 52 49 49 49 57 48 50 44 45 51 50 43 40 37 35 34 30 26 24 24 24 23 21
47 53 60 63 58 52 49 50 51 56 57 50 50 53 60 51 51 47 50 51 47 43 41 39 35 32 29 27 26 24 24 23
53 59 59 60 53 46 43 46 48 52 57 56 53 50 58 64 51 49 51 48 50 49 46 42 38 35 33 29 28 26 25 24
55 55 52 48 46 37 34 37 40 42 53 58 55 55 52 61 60 54 47 52 52 54 49 45 42 38 36 32 31 29 27 25
48 48 46 43 41 34 29 30 37 40 43 52 58 57 55 54 65 54 46 49 55 55 54 49 47 43 38 36 34 32 30 29
43 42 42 42 36 29 26 26 37 43 43 49 52 59 58 51 61 57 54 53 52 59 59 54 50 46 41 38 36 35 32 30
41 40 41 41 35 35 39 36 29 36 42 44 47 49 61 59 59 66 58 56 56 69 65 60 54 48 44 40 39 37 34 32
40 39 39 40 38 43 43 41 31 27 24 35 41 44 48 57 55 64 70 56 66 49 69 60 53 47 45 43 41 39 35 34
39 38 37 36 34 39 41 34 32 23 20 24 29 40 42 45 48 61 62 59 38 41 68 59 52 46 44 44 42 39 35 33
34 36 36 34 32 33 28 24 25 20 19 22 17 23 31 33 34 50 51 60 5 62 63 50 45 42 45 45 41 37 35 33
29 30 32 30 28 21 22 20 9 8 14 18 15 14 12 18 26 36 46 50 44 24 38 48 49 45 46 45 43 39 37 34
24 27 30 29 26 25 23 24 28 23 15 15 15 11 8 20 24 42 26 25 41 26 24 31 38 39 38 30 31 34 28 32
24 22 26 31 31 30 30 28 29 31 34 29 36 16 10 14 24 18 34 28 32 44 33 34 40 6 35 30 17 16 18 23
21 24 28 32 34 34 35 33 31 26 22 30 28 27 17 13 8 9 31 9 24 37 39 35 43 39 27 29 28 22 24 27
16 19 22 25 28 31 31 31 37 33 28 22 23 26 24 19 15 19 13 7 10 24 22 36 41 48 34 27 29 26 30 36
13 14 16 19 21 26 27 29 33 31 33 34 30 24 17 19 14 10 8 9 8 8 13 13 10 18 25 29 35 31 29 27
9 12 15 18 21 23 25 26 28 27 29 30 31 31 32 30 21 8 7 7 4 1 1 3 4 8 17 18 17 19 24 30
8 10 13 16 18 20 22 23 24 24 26 27 28 30 29 27 23 21 17 16 15 16 10 5 3 7 12 15 18 21 26 28

GFSFLT1_700_spd_132.txt.gz
Wind_Speed
43 42 43 44 47 52 58 61 65 63 53 51 53 52 50 58 60 53 48 48 49 44 43 39 35 35 34 32 29 29 29 27
43 42 43 48 54 58 66 69 65 60 56 54 55 54 54 53 59 57 52 48 48 48 47 41 37 38 35 32 30 31 30 29
41 45 49 52 59 66 68 66 61 56 53 55 53 57 56 50 55 58 56 51 49 46 49 46 42 41 38 37 33 32 30 30
44 49 52 58 62 61 53 48 46 44 42 50 51 56 58 59 51 55 62 57 52 51 55 50 47 44 40 38 35 34 32 31
43 49 53 53 51 45 43 39 37 38 40 39 46 53 59 61 57 52 56 64 57 51 52 53 52 48 44 41 38 35 34 33
43 45 47 44 42 40 35 35 37 39 37 41 41 50 55 60 61 54 51 59 65 58 56 59 61 53 48 45 41 39 36 34
39 41 41 38 37 38 40 39 37 39 37 42 47 48 51 56 60 58 55 55 63 60 60 47 63 53 52 47 44 41 39 37
38 39 40 37 36 37 37 39 36 30 24 32 44 52 51 51 53 53 57 55 58 65 62 61 56 41 53 50 48 44 42 40
35 38 41 40 38 32 40 45 45 41 30 20 26 38 48 47 50 46 51 52 58 63 58 67 56 46 58 55 50 45 44 41
33 35 38 37 35 35 39 44 45 46 38 23 15 21 33 43 46 44 45 51 52 50 63 66 63 58 52 54 51 49 45 43
29 31 33 35 33 34 33 37 41 41 33 24 13 12 22 41 35 34 34 39 49 44 56 62 55 33 57 51 48 48 47 43
27 28 28 30 31 31 31 30 35 34 26 19 6 9 10 11 17 22 26 25 30 44 48 50 41 44 49 53 50 48 48 44
22 25 27 26 30 33 33 33 33 34 27 13 11 11 15 12 9 14 15 19 23 37 35 40 26 41 36 57 51 48 51 51
18 18 22 26 28 32 34 38 36 31 29 14 8 14 19 23 27 14 13 13 14 21 27 33 6 14 52 45 54 48 55 56
17 17 18 20 24 27 28 33 35 38 34 33 29 29 34 30 28 16 10 11 9 9 16 12 33 20 2 23 37 38 48 47
14 14 15 16 18 22 24 27 29 34 35 36 34 32 35 38 28 21 19 14 11 5 10 15 18 34 35 20 15 13 15 16
12 12 13 13 15 16 18 23 25 27 29 32 36 40 38 37 34 28 20 19 14 10 8 4 12 24 32 32 32 27 26 23
9 10 11 13 14 17 18 20 22 23 25 26 28 30 28 32 33 29 26 23 15 8 9 6 6 7 4 4 3 7 10 13
8 8 10 12 14 15 18 18 19 20 22 21 23 25 24 25 25 26 27 28 27 24 20 18 16 16 16 14 13 12 11 11